| time (UTC) | temp C | wind direction | speed KPH | gust KPH | rain 1hr cm | rain 24hr cm | rain mn cm | humidity % | barometer mb |
| 20260505070603 | 13 | 97 | 4.8 | 8.0 | 0.00 | 2.90 | 0.00 | 75 | 1007.4 |
| 20260505070507 | 13 | 62 | 4.8 | 9.7 | 0.00 | 2.90 | 0.00 | 74 | 1007.4 |
| 20260505070400 | 13 | 84 | 3.2 | 9.7 | 0.00 | 2.90 | 0.00 | 76 | 1007.5 |
| 20260505070304 | 13 | 70 | 0.0 | 9.7 | 0.00 | 2.90 | 0.00 | 76 | 1007.6 |
| 20260505070203 | 13 | 52 | 1.6 | 9.7 | 0.00 | 2.90 | 0.00 | 76 | 1007.7 |
| 20260505070140 | 13 | 49 | 1.6 | 9.7 | 0.00 | 2.90 | 0.00 | 75 | 1007.8 |
| 20260505070013 | 13 | 101 | 0.0 | 9.7 | 0.00 | 2.90 | 0.00 | 76 | 1007.8 |
| 20260505065957 | 13 | 29 | 1.6 | 9.7 | 0.00 | 2.90 | 0.00 | 76 | 1007.8 |
| 20260505065900 | 13 | 45 | 1.6 | 9.7 | 0.00 | 2.90 | 0.00 | 76 | 1007.8 |
| 20260505065755 | 13 | 68 | 3.2 | 9.7 | 0.00 | 2.90 | 0.00 | 74 | 1007.9 |
| 20260505065719 | 13 | 293 | 4.8 | 9.7 | 0.00 | 2.90 | 0.00 | 74 | 1008.0 |
| 20260505065614 | 13 | 326 | 4.8 | 9.7 | 0.00 | 2.90 | 0.00 | 77 | 1008.1 |
| 20260505065509 | 13 | 336 | 4.8 | 8.0 | 0.00 | 2.90 | 0.00 | 78 | 1008.0 |
| 20260505065417 | 13 | 294 | 1.6 | 8.0 | 0.00 | 2.90 | 0.00 | 79 | 1008.1 |
| 20260505065312 | 13 | 358 | 0.0 | 4.8 | 0.00 | 2.90 | 0.00 | 80 | 1008.0 |
| 20260505065207 | 13 | 320 | 0.0 | 0.0 | 0.00 | 2.90 | 0.00 | 79 | 1007.9 |
| 20260505065111 | 13 | 307 | 0.0 | 0.0 | 0.00 | 2.90 | 0.00 | 80 | 1007.8 |
| 20260505065005 | 13 | 301 | 0.0 | 1.6 | 0.00 | 2.90 | 0.00 | 82 | 1007.8 |
| 20260505064929 | 13 | 316 | 0.0 | 8.0 | 0.00 | 2.90 | 0.00 | 81 | 1007.8 |
| 20260505064803 | 13 | 316 | 0.0 | 8.0 | 0.00 | 2.90 | 0.00 | 80 | 1007.9 |
| 20260505064711 | 13 | 316 | 0.0 | 8.0 | 0.00 | 2.90 | 0.00 | 80 | 1007.8 |
| 20260505064606 | 13 | 322 | 0.0 | 8.0 | 0.00 | 2.90 | 0.00 | 81 | 1007.7 |
| 20260505064525 | 13 | 68 | 0.0 | 8.0 | 0.00 | 2.90 | 0.00 | 80 | 1007.5 |
| 20260505064500 | 14 | 68 | 0.0 | 8.0 | 0.00 | 2.90 | 0.00 | 79 | 1007.5 |
| 20260505064424 | 14 | 68 | 0.0 | 8.0 | 0.00 | 2.90 | 0.00 | 78 | 1007.4 |
| 20260505064258 | 14 | 68 | 0.0 | 8.0 | 0.00 | 2.90 | 0.00 | 77 | 1007.2 |
| 20260505064222 | 14 | 68 | 1.6 | 8.0 | 0.00 | 2.90 | 0.00 | 78 | 1007.0 |
| 20260505064056 | 14 | 29 | 1.6 | 8.0 | 0.00 | 2.90 | 0.00 | 79 | 1007.0 |
| 20260505064000 | 14 | 60 | 0.0 | 0.0 | 0.00 | 2.90 | 0.00 | 79 | 1006.9 |
| 20260505063919 | 14 | 11 | 0.0 | 0.0 | 0.00 | 2.90 | 0.00 | 79 | 1006.8 |
| 20260505063822 | 14 | 11 | 0.0 | 8.0 | 0.00 | 2.90 | 0.00 | 79 | 1006.8 |
| 20260505063656 | 14 | 42 | 0.0 | 8.0 | 0.00 | 2.90 | 0.00 | 80 | 1006.7 |
| 20260505063558 | 14 | 344 | 0.0 | 8.0 | 0.00 | 2.90 | 0.00 | 80 | 1006.7 |
| 20260505063522 | 14 | 84 | 0.0 | 8.0 | 0.00 | 2.90 | 0.00 | 79 | 1006.7 |
| 20260505063357 | 15 | 19 | 0.0 | 8.0 | 0.00 | 2.90 | 0.00 | 79 | 1006.6 |
| 20260505063312 | 15 | 18 | 0.0 | 8.0 | 0.00 | 2.90 | 0.00 | 79 | 1006.6 |
| 20260505063216 | 15 | 60 | 0.0 | 8.0 | 0.00 | 2.90 | 0.00 | 78 | 1006.6 |
| 20260505063131 | 14 | 62 | 0.0 | 8.0 | 0.00 | 2.90 | 0.00 | 78 | 1006.6 |
| 20260505063110 | 15 | 45 | 0.0 | 8.0 | 0.00 | 2.90 | 0.00 | 78 | 1006.6 |
| 20260505063020 | 15 | 67 | 1.6 | 8.0 | 0.00 | 2.90 | 0.00 | 78 | 1006.6 |
| 20260505062913 | 15 | 33 | 1.6 | 8.0 | 0.00 | 2.90 | 0.00 | 77 | 1006.6 |
| 20260505062815 | 15 | 54 | 1.6 | 8.0 | 0.00 | 2.90 | 0.00 | 76 | 1006.6 |
| 20260505062730 | 15 | 34 | 1.6 | 8.0 | 0.00 | 2.90 | 0.00 | 74 | 1006.5 |
| 20260505062613 | 15 | 38 | 1.6 | 8.0 | 0.00 | 2.90 | 0.00 | 75 | 1006.6 |
| 20260505062508 | 15 | 16 | 1.6 | 8.0 | 0.00 | 2.90 | 0.00 | 75 | 1006.7 |
| 20260505062403 | 15 | 320 | 3.2 | 8.0 | 0.00 | 2.90 | 0.00 | 74 | 1006.8 |
| 20260505062311 | 15 | 342 | 3.2 | 8.0 | 0.00 | 2.90 | 0.00 | 73 | 1006.9 |
| 20260505062206 | 15 | 314 | 0.0 | 4.8 | 0.00 | 2.90 | 0.00 | 75 | 1006.9 |
| 20260505062101 | 15 | 293 | 0.0 | 6.4 | 0.00 | 2.90 | 0.00 | 74 | 1006.9 |
| 20260505062005 | 15 | 320 | 0.0 | 6.4 | 0.00 | 2.90 | 0.00 | 74 | 1006.9 |
| 20260505061900 | 15 | 324 | 0.0 | 6.4 | 0.00 | 2.90 | 0.00 | 74 | 1006.8 |
| 20260505061824 | 15 | 325 | 1.6 | 6.4 | 0.00 | 2.90 | 0.00 | 74 | 1006.8 |
| 20260505061659 | 15 | 324 | 0.0 | 6.4 | 0.00 | 2.90 | 0.00 | 73 | 1006.7 |
| 20260505061640 | 15 | 325 | 0.0 | 6.4 | 0.00 | 2.90 | 0.00 | 73 | 1006.7 |
| 20260505061618 | 16 | 280 | 0.0 | 6.4 | 0.00 | 2.90 | 0.00 | 73 | 1006.5 |
| 20260505061521 | 16 | 319 | 0.0 | 9.7 | 0.00 | 2.90 | 0.00 | 73 | 1006.3 |
| 20260505061424 | 16 | 309 | 0.0 | 9.7 | 0.00 | 2.90 | 0.00 | 73 | 1006.3 |
| 20260505061318 | 16 | 51 | 1.6 | 9.7 | 0.00 | 2.90 | 0.00 | 72 | 1006.1 |
| 20260505061221 | 16 | 51 | 1.6 | 9.7 | 0.00 | 2.90 | 0.00 | 72 | 1006.1 |
| 20260505061124 | 16 | 46 | 0.0 | 14.5 | 0.00 | 2.90 | 0.00 | 72 | 1006.1 |
| 20260505061019 | 16 | 321 | 0.0 | 14.5 | 0.00 | 2.90 | 0.00 | 71 | 1005.9 |
| 20260505060922 | 16 | 339 | 0.0 | 14.5 | 0.00 | 2.90 | 0.00 | 71 | 1005.8 |
| 20260505060756 | 16 | 317 | 3.2 | 14.5 | 0.00 | 2.90 | 0.00 | 71 | 1005.7 |
| 20260505060720 | 16 | 56 | 3.2 | 14.5 | 0.00 | 2.90 | 0.00 | 71 | 1005.8 |
| 20260505060558 | 16 | 60 | 0.0 | 14.5 | 0.00 | 2.90 | 0.00 | 71 | 1005.7 |
| 20260505060522 | 16 | 30 | 0.0 | 14.5 | 0.00 | 2.90 | 0.00 | 70 | 1005.7 |
| 20260505060417 | 16 | 337 | 1.6 | 14.5 | 0.00 | 2.90 | 0.00 | 70 | 1005.7 |
| 20260505060340 | 16 | 32 | 1.6 | 14.5 | 0.00 | 2.90 | 0.00 | 69 | 1005.6 |
| 20260505060213 | 16 | 33 | 0.0 | 14.5 | 0.00 | 2.90 | 0.00 | 69 | 1005.5 |
| 20260505060129 | 16 | 39 | 0.0 | 14.5 | 0.00 | 2.90 | 0.00 | 69 | 1005.5 |
| 20260505060052 | 15 | 18 | 0.0 | 14.5 | 0.00 | 2.90 | 0.00 | 69 | 1005.5 |
| 20260505060008 | 16 | 62 | 1.6 | 14.5 | 0.00 | 2.90 | 0.00 | 69 | 1005.3 |
| 20260505055902 | 16 | 349 | 3.2 | 14.5 | 0.00 | 2.90 | 0.00 | 69 | 1005.4 |
| 20260505055810 | 16 | 59 | 4.8 | 14.5 | 0.00 | 2.90 | 0.00 | 68 | 1005.4 |
| 20260505055725 | 16 | 68 | 1.6 | 14.5 | 0.00 | 2.90 | 0.00 | 69 | 1005.4 |
| 20260505055608 | 16 | 55 | 4.8 | 14.5 | 0.00 | 2.90 | 0.00 | 68 | 1005.4 |
| 20260505055502 | 16 | 52 | 8.0 | 14.5 | 0.00 | 2.90 | 0.00 | 68 | 1005.4 |
| 20260505055427 | 16 | 77 | 3.2 | 12.9 | 0.00 | 2.90 | 0.00 | 68 | 1005.4 |
| 20260505055301 | 16 | 78 | 1.6 | 9.7 | 0.00 | 2.90 | 0.00 | 69 | 1005.3 |
| 20260505055156 | 16 | 38 | 3.2 | 9.7 | 0.00 | 2.90 | 0.00 | 69 | 1005.4 |
| 20260505055119 | 16 | 65 | 3.2 | 9.7 | 0.00 | 2.90 | 0.00 | 69 | 1005.4 |
| 20260505055026 | 16 | 37 | 1.6 | 9.7 | 0.00 | 2.90 | 0.00 | 69 | 1005.3 |
| 20260505054900 | 16 | 42 | 0.0 | 9.7 | 0.00 | 2.90 | 0.00 | 70 | 1005.3 |
| 20260505054824 | 16 | 79 | 3.2 | 25.7 | 0.00 | 2.90 | 0.00 | 69 | 1005.3 |
| 20260505054658 | 16 | 50 | 4.8 | 25.7 | 0.00 | 2.90 | 0.00 | 69 | 1005.3 |
| 20260505054623 | 16 | 44 | 3.2 | 25.7 | 0.00 | 2.90 | 0.00 | 69 | 1005.3 |
| 20260505054603 | 15 | 60 | 1.6 | 30.6 | 0.00 | 2.90 | 0.00 | 68 | 1005.2 |
| 20260505054458 | 16 | 53 | 0.0 | 30.6 | 0.00 | 2.90 | 0.00 | 69 | 1005.3 |
| 20260505054413 | 16 | 30 | 1.6 | 30.6 | 0.00 | 2.90 | 0.00 | 68 | 1005.3 |
| 20260505054317 | 16 | 39 | 3.2 | 30.6 | 0.00 | 2.90 | 0.00 | 69 | 1005.3 |
| 20260505054216 | 16 | 58 | 4.8 | 30.6 | 0.00 | 2.90 | 0.00 | 69 | 1005.2 |
| 20260505054139 | 16 | 49 | 9.7 | 32.2 | 0.00 | 2.90 | 0.00 | 68 | 1005.2 |
| 20260505054013 | 16 | 35 | 11.3 | 32.2 | 0.00 | 2.90 | 0.00 | 68 | 1005.2 |
| 20260505053908 | 16 | 38 | 12.9 | 32.2 | 0.00 | 2.90 | 0.00 | 68 | 1005.2 |
| 20260505053832 | 16 | 67 | 11.3 | 32.2 | 0.00 | 2.90 | 0.00 | 69 | 1005.2 |
| 20260505053735 | 16 | 68 | 6.4 | 32.2 | 0.00 | 2.90 | 0.00 | 70 | 1005.2 |
| 20260505053609 | 16 | 64 | 12.9 | 32.2 | 0.00 | 2.90 | 0.00 | 69 | 1005.2 |
| 20260505053504 | 16 | 53 | 16.1 | 32.2 | 0.00 | 2.90 | 0.00 | 68 | 1005.2 |
| 20260505053431 | 16 | 71 | 14.5 | 32.2 | 0.00 | 2.90 | 0.00 | 68 | 1005.3 |
| 20260505053304 | 16 | 14 | 16.1 | 32.2 | 0.00 | 2.90 | 0.00 | 67 | 1005.3 |
| 20260505053209 | 17 | 84 | 9.7 | 27.4 | 0.00 | 2.90 | 0.00 | 67 | 1005.3 |
| 20260505053103 | 17 | 73 | 4.8 | 27.4 | 0.00 | 2.90 | 0.00 | 67 | 1005.2 |
| 20260505053037 | 17 | 30 | 6.4 | 27.4 | 0.00 | 2.90 | 0.00 | 66 | 1005.2 |
| 20260505052958 | 17 | 104 | 9.7 | 27.4 | 0.00 | 2.90 | 0.00 | 64 | 1005.2 |
| 20260505052924 | 17 | 350 | 9.7 | 27.4 | 0.00 | 2.90 | 0.00 | 64 | 1005.2 |
| 20260505052757 | 18 | 58 | 11.3 | 27.4 | 0.00 | 2.90 | 0.00 | 61 | 1005.2 |
| 20260505052657 | 18 | 68 | 11.3 | 27.4 | 0.00 | 2.90 | 0.00 | 60 | 1005.2 |
| 20260505052620 | 18 | 38 | 12.9 | 27.4 | 0.00 | 2.90 | 0.00 | 59 | 1005.2 |
| 20260505052514 | 18 | 16 | 14.5 | 27.4 | 0.00 | 2.90 | 0.00 | 57 | 1005.1 |
| 20260505052410 | 18 | 41 | 9.7 | 27.4 | 0.00 | 2.90 | 0.00 | 57 | 1005.1 |
| 20260505052313 | 19 | 41 | 8.0 | 24.1 | 0.00 | 2.90 | 0.00 | 55 | 1005.0 |
| 20260505052209 | 19 | 84 | 8.0 | 24.1 | 0.00 | 2.90 | 0.00 | 54 | 1005.0 |
| 20260505052133 | 20 | 266 | 9.7 | 24.1 | 0.00 | 2.90 | 0.00 | 53 | 1005.2 |
| 20260505052010 | 20 | 77 | 11.3 | 24.1 | 0.00 | 2.90 | 0.00 | 51 | 1005.3 |
| 20260505051934 | 20 | 311 | 11.3 | 24.1 | 0.00 | 2.90 | 0.00 | 50 | 1005.3 |
| 20260505051808 | 20 | 88 | 8.0 | 20.9 | 0.00 | 2.90 | 0.00 | 49 | 1005.2 |
| 20260505051703 | 20 | 245 | 6.4 | 20.9 | 0.00 | 2.90 | 0.00 | 49 | 1005.1 |
| 20260505051606 | 20 | 267 | 4.8 | 20.9 | 0.00 | 2.90 | 0.00 | 49 | 1005.0 |
| 20260505051538 | 20 | 28 | 1.6 | 20.9 | 0.00 | 2.90 | 0.00 | 49 | 1005.0 |
| 20260505051501 | 20 | 312 | 3.2 | 20.9 | 0.00 | 2.90 | 0.00 | 50 | 1004.7 |
| 20260505051425 | 21 | 345 | 6.4 | 20.9 | 0.00 | 2.90 | 0.00 | 50 | 1004.7 |
| 20260505051259 | 21 | 64 | 9.7 | 20.9 | 0.00 | 2.90 | 0.00 | 50 | 1004.5 |
| 20260505051158 | 21 | 33 | 6.4 | 20.9 | 0.00 | 2.90 | 0.00 | 52 | 1004.4 |
| 20260505051122 | 21 | 53 | 3.2 | 20.9 | 0.00 | 2.90 | 0.00 | 56 | 1004.4 |
| 20260505050956 | 21 | 300 | 1.6 | 16.1 | 0.00 | 2.90 | 0.00 | 59 | 1004.3 |
| 20260505050901 | 21 | 345 | 4.8 | 16.1 | 0.00 | 2.90 | 0.00 | 63 | 1004.2 |
| 20260505050755 | 21 | 322 | 3.2 | 16.1 | 0.00 | 2.90 | 0.00 | 64 | 1004.1 |
| 20260505050720 | 21 | 68 | 3.2 | 16.1 | 0.00 | 2.90 | 0.00 | 68 | 1004.1 |
| 20260505050614 | 21 | 32 | 0.0 | 3.2 | 0.00 | 2.90 | 0.00 | 72 | 1004.1 |
| 20260505050513 | 21 | 328 | 0.0 | 0.0 | 0.00 | 2.90 | 0.00 | 72 | 1004.1 |
| 20260505050417 | 21 | 61 | 0.0 | 1.6 | 0.00 | 2.90 | 0.00 | 73 | 1004.1 |
| 20260505050312 | 21 | 352 | 0.0 | 1.6 | 0.00 | 2.90 | 0.00 | 73 | 1004.1 |
| 20260505050236 | 21 | 290 | 0.0 | 1.6 | 0.00 | 2.90 | 0.00 | 73 | 1004.0 |
| 20260505050145 | 20 | 20 | 0.0 | 1.6 | 0.00 | 2.90 | 0.00 | 73 | 1004.0 |
| 20260505050121 | 21 | 20 | 0.0 | 1.6 | 0.00 | 2.90 | 0.00 | 73 | 1004.0 |
| 20260505041725 | 21 | 186 | 0.0 | 11.3 | 0.00 | 2.90 | 2.90 | 73 | 1003.5 |
| 20260505041628 | 21 | 249 | 0.0 | 11.3 | 0.00 | 2.90 | 2.90 | 73 | 1003.5 |
| 20260505041533 | 20 | 278 | 0.0 | 11.3 | 0.00 | 2.90 | 2.90 | 73 | 1003.5 |
| 20260505041502 | 21 | 148 | 0.0 | 11.3 | 0.00 | 2.90 | 2.90 | 73 | 1003.5 |
| 20260505041357 | 21 | 217 | 0.0 | 11.3 | 0.00 | 2.90 | 2.90 | 73 | 1003.5 |
| 20260505041301 | 21 | 231 | 1.6 | 11.3 | 0.00 | 2.90 | 2.90 | 73 | 1003.6 |
| 20260505041200 | 21 | 124 | 1.6 | 11.3 | 0.00 | 2.90 | 2.90 | 73 | 1003.5 |
| 20260505041055 | 21 | 210 | 1.6 | 11.3 | 0.00 | 2.90 | 2.90 | 73 | 1003.6 |
| 20260505040959 | 21 | 218 | 3.2 | 11.3 | 0.00 | 2.90 | 2.90 | 73 | 1003.7 |
| 20260505040914 | 21 | 215 | 1.6 | 11.3 | 0.00 | 2.90 | 2.90 | 73 | 1003.7 |
| 20260505040818 | 21 | 221 | 0.0 | 9.7 | 0.00 | 2.90 | 2.90 | 73 | 1003.8 |
| 20260505040713 | 21 | 97 | 0.0 | 8.0 | 0.00 | 2.90 | 2.90 | 73 | 1003.8 |
| 20260505040608 | 21 | 125 | 1.6 | 8.0 | 0.00 | 2.90 | 2.90 | 73 | 1003.8 |
| 20260505040516 | 21 | 84 | 1.6 | 8.0 | 0.00 | 2.90 | 2.90 | 73 | 1003.8 |
| 20260505040431 | 21 | 183 | 0.0 | 0.0 | 0.00 | 2.90 | 2.90 | 73 | 1003.8 |
| 20260505040334 | 21 | 291 | 0.0 | 0.0 | 0.00 | 2.90 | 2.90 | 73 | 1003.8 |
| 20260505040208 | 21 | 239 | 0.0 | 0.0 | 0.00 | 2.90 | 2.90 | 73 | 1003.8 |
| 20260505040123 | 21 | 142 | 0.0 | 0.0 | 0.00 | 2.90 | 2.90 | 73 | 1003.8 |
| 20260505040036 | 20 | 250 | 0.0 | 4.8 | 0.00 | 2.90 | 2.90 | 73 | 1003.8 |
| 20260505040004 | 21 | 218 | 0.0 | 8.0 | 0.00 | 2.90 | 2.90 | 73 | 1003.8 |
| 20260505035906 | 21 | 172 | 0.0 | 8.0 | 0.00 | 2.90 | 2.90 | 72 | 1003.8 |
| 20260505035801 | 21 | 219 | 0.0 | 8.0 | 0.00 | 2.90 | 2.90 | 72 | 1003.8 |
| 20260505035700 | 21 | 189 | 0.0 | 8.0 | 0.00 | 2.90 | 2.90 | 72 | 1003.8 |
| 20260505035604 | 21 | 168 | 0.0 | 8.0 | 0.00 | 2.90 | 2.90 | 72 | 1003.8 |
| 20260505035459 | 21 | 221 | 0.0 | 8.0 | 0.00 | 2.90 | 2.90 | 72 | 1003.8 |
| 20260505035423 | 21 | 161 | 0.0 | 8.0 | 0.00 | 2.90 | 2.90 | 72 | 1003.8 |
| 20260505035257 | 21 | 195 | 1.6 | 8.0 | 0.00 | 2.90 | 2.90 | 72 | 1003.8 |
| 20260505035221 | 21 | 139 | 1.6 | 8.0 | 0.00 | 2.90 | 2.90 | 72 | 1003.8 |
| 20260505035115 | 21 | 177 | 0.0 | 8.0 | 0.00 | 2.90 | 2.90 | 72 | 1003.8 |
| 20260505035040 | 21 | 153 | 0.0 | 6.4 | 0.00 | 2.90 | 2.90 | 72 | 1003.8 |
| 20260505034858 | 21 | 226 | 1.6 | 6.4 | 0.00 | 2.90 | 2.90 | 72 | 1003.8 |
| 20260505034813 | 21 | 146 | 1.6 | 6.4 | 0.00 | 2.90 | 2.90 | 72 | 1003.8 |
| 20260505034717 | 21 | 216 | 1.6 | 6.4 | 0.00 | 2.90 | 2.90 | 72 | 1003.8 |
| 20260505034612 | 21 | 191 | 0.0 | 4.8 | 0.00 | 2.90 | 2.90 | 72 | 1003.9 |
| 20260505034534 | 21 | 250 | 0.0 | 0.0 | 0.00 | 2.90 | 2.90 | 72 | 1003.9 |
| 20260505034507 | 21 | 165 | 0.0 | 0.0 | 0.00 | 2.90 | 2.90 | 72 | 1003.9 |
| 20260505034402 | 21 | 200 | 0.0 | 1.6 | 0.00 | 2.90 | 2.90 | 72 | 1003.9 |
| 20260505034310 | 21 | 214 | 0.0 | 1.6 | 0.00 | 2.90 | 2.90 | 72 | 1003.9 |
| 20260505034205 | 21 | 155 | 0.0 | 4.8 | 0.00 | 2.90 | 2.90 | 72 | 1003.9 |
| 20260505034110 | 21 | 130 | 0.0 | 4.8 | 0.00 | 2.90 | 2.90 | 72 | 1003.9 |
| 20260505034003 | 21 | 144 | 0.0 | 4.8 | 0.00 | 2.90 | 2.90 | 72 | 1003.9 |
| 20260505033929 | 21 | 162 | 0.0 | 6.4 | 0.00 | 2.90 | 2.90 | 71 | 1003.9 |
| 20260505033801 | 21 | 165 | 0.0 | 6.4 | 0.00 | 2.90 | 2.90 | 71 | 1003.9 |
| 20260505033656 | 21 | 195 | 0.0 | 6.4 | 0.00 | 2.90 | 2.90 | 71 | 1003.9 |
| 20260505033621 | 21 | 189 | 0.0 | 6.4 | 0.00 | 2.90 | 2.90 | 71 | 1003.9 |
| 20260505033458 | 21 | 244 | 1.6 | 6.4 | 0.00 | 2.90 | 2.90 | 71 | 1003.8 |
| 20260505033403 | 21 | 212 | 1.6 | 11.3 | 0.00 | 2.90 | 2.90 | 71 | 1003.9 |
| 20260505033313 | 21 | 283 | 1.6 | 11.3 | 0.00 | 2.90 | 2.90 | 71 | 1003.8 |
| 20260505033218 | 21 | 190 | 1.6 | 11.3 | 0.00 | 2.90 | 2.90 | 71 | 1003.8 |
| 20260505033108 | 21 | 196 | 1.6 | 11.3 | 0.00 | 2.90 | 2.90 | 71 | 1003.9 |
| 20260505033040 | 21 | 114 | 0.0 | 11.3 | 0.00 | 2.90 | 2.90 | 71 | 1003.9 |
| 20260505033005 | 21 | 263 | 0.0 | 11.3 | 0.00 | 2.90 | 2.90 | 71 | 1003.9 |
| 20260505032859 | 21 | 136 | 0.0 | 11.3 | 0.00 | 2.90 | 2.90 | 71 | 1003.8 |
| 20260505032806 | 21 | 199 | 0.0 | 11.3 | 0.00 | 2.90 | 2.90 | 72 | 1003.8 |
| 20260505032701 | 21 | 174 | 1.6 | 11.3 | 0.00 | 2.90 | 2.90 | 71 | 1003.8 |
| 20260505032556 | 21 | 181 | 1.6 | 11.3 | 0.00 | 2.90 | 2.90 | 71 | 1003.8 |
| 20260505032500 | 21 | 250 | 0.0 | 8.0 | 0.00 | 2.90 | 2.90 | 71 | 1003.8 |
| 20260505032356 | 21 | 175 | 1.6 | 8.0 | 0.00 | 2.90 | 2.90 | 72 | 1003.8 |
| 20260505032320 | 21 | 262 | 1.6 | 8.0 | 0.00 | 2.90 | 2.90 | 72 | 1003.8 |
| 20260505032234 | 21 | 137 | 1.6 | 8.0 | 0.00 | 2.90 | 2.90 | 72 | 1003.8 |
| 20260505032103 | 21 | 143 | 1.6 | 8.0 | 0.00 | 2.90 | 2.90 | 72 | 1003.8 |
| 20260505031956 | 21 | 255 | 0.0 | 9.7 | 0.00 | 2.90 | 2.90 | 72 | 1003.8 |
| 20260505031921 | 21 | 172 | 0.0 | 9.7 | 0.00 | 2.90 | 2.90 | 72 | 1003.8 |
| 20260505031814 | 21 | 150 | 0.0 | 9.7 | 0.00 | 2.90 | 2.90 | 72 | 1003.8 |
| 20260505031709 | 21 | 150 | 0.0 | 9.7 | 0.00 | 2.90 | 2.90 | 72 | 1003.8 |
| 20260505031613 | 21 | 196 | 0.0 | 9.7 | 0.00 | 2.90 | 2.90 | 72 | 1003.7 |
| 20260505031540 | 21 | 143 | 0.0 | 9.7 | 0.00 | 2.90 | 2.90 | 72 | 1003.7 |
| 20260505031508 | 21 | 148 | 1.6 | 9.7 | 0.00 | 2.90 | 2.90 | 72 | 1003.7 |
| 20260505031406 | 21 | 57 | 1.6 | 9.7 | 0.00 | 2.90 | 2.90 | 72 | 1003.6 |
| 20260505031310 | 21 | 165 | 3.2 | 9.7 | 0.00 | 2.90 | 2.90 | 72 | 1003.6 |
| 20260505031236 | 21 | 154 | 1.6 | 9.7 | 0.00 | 2.90 | 2.90 | 72 | 1003.7 |
| 20260505031109 | 21 | 150 | 1.6 | 8.0 | 0.00 | 2.90 | 2.90 | 72 | 1003.6 |
| 20260505031004 | 21 | 221 | 1.6 | 8.0 | 0.00 | 2.90 | 2.90 | 72 | 1003.6 |
| 20260505030928 | 21 | 224 | 0.0 | 6.4 | 0.00 | 2.90 | 2.90 | 72 | 1003.6 |
| 20260505030802 | 21 | 155 | 0.0 | 6.4 | 0.00 | 2.90 | 2.90 | 72 | 1003.7 |
| 20260505030657 | 21 | 143 | 0.0 | 6.4 | 0.00 | 2.90 | 2.90 | 72 | 1003.7 |
| 20260505030605 | 21 | 144 | 0.0 | 6.4 | 0.00 | 2.90 | 2.90 | 72 | 1003.6 |
| 20260505030500 | 21 | 94 | 1.6 | 6.4 | 0.00 | 2.90 | 2.90 | 72 | 1003.6 |
| 20260505030355 | 21 | 153 | 1.6 | 6.4 | 0.00 | 2.90 | 2.90 | 71 | 1003.7 |
| 20260505030259 | 21 | 174 | 1.6 | 6.4 | 0.00 | 2.90 | 2.90 | 71 | 1003.6 |
| 20260505030214 | 21 | 210 | 0.0 | 6.4 | 0.00 | 2.90 | 2.90 | 71 | 1003.7 |
| 20260505030150 | 21 | 243 | 0.0 | 6.4 | 0.00 | 2.90 | 2.90 | 71 | 1003.7 |
| 20260505030017 | 21 | 204 | 1.6 | 6.4 | 0.00 | 2.90 | 2.90 | 71 | 1003.6 |
| 20260505025914 | 21 | 208 | 1.6 | 6.4 | 0.00 | 2.90 | 2.90 | 71 | 1003.6 |
| 20260505025809 | 21 | 248 | 0.0 | 0.0 | 0.00 | 2.90 | 2.90 | 71 | 1003.6 |
| 20260505025713 | 21 | 174 | 0.0 | 0.0 | 0.00 | 2.90 | 2.90 | 71 | 1003.6 |
| 20260505025608 | 21 | 116 | 0.0 | 0.0 | 0.00 | 2.90 | 2.90 | 71 | 1003.6 |
| 20260505025503 | 21 | 37 | 0.0 | 0.0 | 0.00 | 2.90 | 2.90 | 70 | 1003.6 |
| 20260505025407 | 21 | 207 | 0.0 | 0.0 | 0.00 | 2.90 | 2.90 | 70 | 1003.6 |
| 20260505025304 | 21 | 134 | 0.0 | 0.0 | 0.00 | 2.90 | 2.90 | 70 | 1003.5 |
| 20260505025201 | 21 | 167 | 0.0 | 3.2 | 0.00 | 2.90 | 2.90 | 70 | 1003.6 |
| 20260505025105 | 21 | 168 | 0.0 | 3.2 | 0.00 | 2.90 | 2.90 | 70 | 1003.5 |
| 20260505025020 | 21 | 168 | 0.0 | 3.2 | 0.00 | 2.90 | 2.90 | 70 | 1003.5 |
| 20260505024903 | 21 | 204 | 0.0 | 3.2 | 0.00 | 2.90 | 2.90 | 70 | 1003.5 |
| 20260505024758 | 21 | 226 | 0.0 | 3.2 | 0.00 | 2.90 | 2.90 | 70 | 1003.5 |
| 20260505024723 | 21 | 226 | 0.0 | 3.2 | 0.00 | 2.90 | 2.90 | 70 | 1003.5 |
| 20260505024617 | 21 | 205 | 0.0 | 3.2 | 0.00 | 2.90 | 2.90 | 69 | 1003.5 |
| 20260505024520 | 21 | 122 | 0.0 | 6.4 | 0.00 | 2.90 | 2.90 | 69 | 1003.5 |
| 20260505024455 | 21 | 122 | 0.0 | 6.4 | 0.00 | 2.90 | 2.90 | 70 | 1003.5 |
| 20260505024419 | 21 | 153 | 0.0 | 6.4 | 0.00 | 2.90 | 2.90 | 70 | 1003.4 |
| 20260505024344 | 21 | 158 | 0.0 | 6.4 | 0.00 | 2.90 | 2.90 | 70 | 1003.5 |
| 20260505024157 | 21 | 175 | 0.0 | 6.4 | 0.00 | 2.90 | 2.90 | 70 | 1003.4 |
| 20260505024111 | 21 | 230 | 0.0 | 6.4 | 0.00 | 2.90 | 2.90 | 70 | 1003.4 |
| 20260505024015 | 21 | 209 | 0.0 | 6.4 | 0.00 | 2.90 | 2.90 | 70 | 1003.4 |
| 20260505023910 | 21 | 345 | 0.0 | 6.4 | 0.00 | 2.90 | 2.90 | 70 | 1003.4 |
| 20260505023805 | 21 | 304 | 0.0 | 6.4 | 0.00 | 2.90 | 2.90 | 70 | 1003.4 |
| 20260505023713 | 21 | 233 | 0.0 | 6.4 | 0.00 | 2.90 | 2.90 | 70 | 1003.3 |
| 20260505023608 | 21 | 184 | 0.0 | 6.4 | 0.00 | 2.90 | 2.90 | 70 | 1003.3 |
| 20260505023503 | 21 | 176 | 0.0 | 6.4 | 0.00 | 2.90 | 2.90 | 70 | 1003.3 |
| 20260505023427 | 21 | 255 | 0.0 | 6.4 | 0.00 | 2.90 | 2.90 | 70 | 1003.3 |
| 20260505023321 | 21 | 144 | 0.0 | 6.4 | 0.00 | 2.90 | 2.90 | 70 | 1003.3 |
| 20260505023204 | 21 | 128 | 0.0 | 6.4 | 0.00 | 2.90 | 2.90 | 70 | 1003.2 |
| 20260505023130 | 20 | 214 | 0.0 | 6.4 | 0.00 | 2.90 | 2.90 | 70 | 1003.2 |
| 20260505023059 | 21 | 233 | 0.0 | 6.4 | 0.00 | 2.90 | 2.90 | 70 | 1003.2 |
| 20260505023024 | 21 | 156 | 0.0 | 6.4 | 0.00 | 2.90 | 2.90 | 70 | 1003.2 |
| 20260505022930 | 21 | 155 | 1.6 | 6.4 | 0.00 | 2.90 | 2.90 | 70 | 1003.2 |
| 20260505022804 | 21 | 179 | 1.6 | 6.4 | 0.00 | 2.90 | 2.90 | 70 | 1003.2 |
| 20260505022659 | 21 | 162 | 0.0 | 0.0 | 0.00 | 2.90 | 2.90 | 70 | 1003.2 |
| 20260505022622 | 21 | 205 | 0.0 | 0.0 | 0.00 | 2.90 | 2.90 | 70 | 1003.2 |
| 20260505022517 | 21 | 160 | 0.0 | 0.0 | 0.00 | 2.90 | 2.90 | 70 | 1003.1 |
| 20260505022441 | 21 | 161 | 0.0 | 0.0 | 0.00 | 2.90 | 2.90 | 70 | 1003.1 |
| 20260505022255 | 21 | 155 | 0.0 | 0.0 | 0.00 | 2.90 | 2.90 | 70 | 1003.1 |
| 20260505022210 | 21 | 178 | 0.0 | 0.0 | 0.00 | 2.90 | 2.90 | 70 | 1003.1 |
| 20260505022118 | 21 | 165 | 0.0 | 0.0 | 0.00 | 2.90 | 2.90 | 70 | 1003.1 |
| 20260505022013 | 21 | 165 | 0.0 | 0.0 | 0.00 | 2.90 | 2.90 | 70 | 1003.1 |
| 20260505021907 | 21 | 165 | 0.0 | 0.0 | 0.00 | 2.90 | 2.90 | 70 | 1003.1 |
| 20260505021812 | 21 | 165 | 0.0 | 0.0 | 0.00 | 2.90 | 2.90 | 70 | 1003.0 |
| 20260505021706 | 21 | 165 | 0.0 | 0.0 | 0.00 | 2.90 | 2.90 | 70 | 1003.0 |
| 20260505021618 | 21 | 141 | 0.0 | 0.0 | 0.00 | 2.90 | 2.90 | 70 | 1002.9 |
| 20260505021601 | 21 | 141 | 0.0 | 0.0 | 0.00 | 2.90 | 2.90 | 70 | 1003.0 |
| 20260505021509 | 21 | 141 | 0.0 | 0.0 | 0.00 | 2.90 | 2.90 | 70 | 1002.9 |
| 20260505021404 | 21 | 141 | 0.0 | 0.0 | 0.00 | 2.90 | 2.90 | 69 | 1003.0 |
| 20260505021327 | 21 | 141 | 0.0 | 0.0 | 0.00 | 2.90 | 2.90 | 69 | 1002.9 |
| 20260505021202 | 21 | 141 | 0.0 | 0.0 | 0.00 | 2.90 | 2.90 | 70 | 1002.9 |
| 20260505021057 | 21 | 141 | 0.0 | 0.0 | 0.00 | 2.90 | 2.90 | 69 | 1002.9 |
| 20260505021001 | 21 | 141 | 0.0 | 0.0 | 0.00 | 2.90 | 2.90 | 69 | 1002.9 |
| 20260505020855 | 21 | 141 | 0.0 | 0.0 | 0.00 | 2.90 | 2.90 | 69 | 1002.9 |
| 20260505020759 | 21 | 141 | 0.0 | 0.0 | 0.00 | 2.90 | 2.90 | 69 | 1002.8 |
| 20260505020657 | 21 | 141 | 0.0 | 0.0 | 0.00 | 2.90 | 2.90 | 69 | 1002.8 |
| 20260505020621 | 21 | 141 | 0.0 | 0.0 | 0.00 | 2.90 | 2.90 | 69 | 1002.8 |
| 20260505020456 | 21 | 141 | 0.0 | 0.0 | 0.00 | 2.90 | 2.90 | 69 | 1002.8 |
| 20260505020412 | 21 | 141 | 0.0 | 0.0 | 0.00 | 2.90 | 2.90 | 69 | 1002.8 |
| 20260505020315 | 21 | 141 | 0.0 | 0.0 | 0.00 | 2.90 | 2.90 | 69 | 1002.8 |
| 20260505020209 | 21 | 141 | 0.0 | 0.0 | 0.00 | 2.90 | 2.90 | 69 | 1002.8 |
| 20260505020125 | 21 | 141 | 0.0 | 0.0 | 0.00 | 2.90 | 2.90 | 69 | 1002.8 |
| 20260505020033 | 21 | 141 | 0.0 | 0.0 | 0.00 | 2.90 | 2.90 | 69 | 1002.7 |
| 20260505015909 | 21 | 141 | 0.0 | 0.0 | 0.00 | 2.90 | 2.90 | 69 | 1002.7 |
| 20260505015804 | 21 | 141 | 0.0 | 0.0 | 0.00 | 2.90 | 2.90 | 68 | 1002.7 |
| 20260505015708 | 21 | 141 | 0.0 | 0.0 | 0.00 | 2.90 | 2.90 | 69 | 1002.8 |
| 20260505015603 | 21 | 141 | 0.0 | 0.0 | 0.00 | 2.90 | 2.90 | 69 | 1002.7 |
| 20260505015458 | 21 | 141 | 0.0 | 0.0 | 0.00 | 2.90 | 2.90 | 68 | 1002.7 |
| 20260505015403 | 21 | 141 | 0.0 | 0.0 | 0.00 | 2.90 | 2.90 | 68 | 1002.7 |
| 20260505015303 | 21 | 141 | 0.0 | 0.0 | 0.00 | 2.90 | 2.90 | 68 | 1002.7 |
| 20260505015156 | 21 | 141 | 0.0 | 0.0 | 0.00 | 2.90 | 2.90 | 68 | 1002.7 |
| 20260505015120 | 21 | 141 | 0.0 | 0.0 | 0.00 | 2.90 | 2.90 | 68 | 1002.7 |
| 20260505014954 | 21 | 141 | 0.0 | 0.0 | 0.00 | 2.90 | 2.90 | 68 | 1002.6 |
| 20260505014919 | 21 | 141 | 0.0 | 0.0 | 0.00 | 2.90 | 2.90 | 68 | 1002.6 |
| 20260505014813 | 21 | 141 | 0.0 | 0.0 | 0.00 | 2.90 | 2.90 | 68 | 1002.6 |
| 20260505014708 | 21 | 141 | 0.0 | 0.0 | 0.00 | 2.90 | 2.90 | 68 | 1002.6 |
| 20260505014612 | 21 | 141 | 0.0 | 0.0 | 0.00 | 2.90 | 2.90 | 67 | 1002.6 |
| 20260505014540 | 21 | 141 | 0.0 | 0.0 | 0.00 | 2.90 | 2.90 | 67 | 1002.6 |
| 20260505014512 | 21 | 141 | 0.0 | 0.0 | 0.00 | 2.90 | 2.90 | 67 | 1002.6 |
| 20260505014416 | 21 | 141 | 0.0 | 0.0 | 0.00 | 2.90 | 2.90 | 67 | 1002.6 |
| 20260505014310 | 21 | 141 | 0.0 | 0.0 | 0.00 | 2.90 | 2.90 | 67 | 1002.5 |
| 20260505014205 | 22 | 141 | 0.0 | 0.0 | 0.00 | 2.90 | 2.90 | 67 | 1002.6 |
| 20260505014100 | 22 | 141 | 0.0 | 0.0 | 0.00 | 2.90 | 2.90 | 67 | 1002.6 |
| 20260505014004 | 22 | 141 | 0.0 | 0.0 | 0.00 | 2.90 | 2.90 | 67 | 1002.5 |
| 20260505013903 | 22 | 141 | 0.0 | 0.0 | 0.00 | 2.90 | 2.90 | 66 | 1002.6 |
| 20260505013827 | 22 | 141 | 0.0 | 0.0 | 0.00 | 2.90 | 2.90 | 66 | 1002.5 |
| 20260505013701 | 22 | 141 | 0.0 | 0.0 | 0.00 | 2.90 | 2.90 | 66 | 1002.5 |
| 20260505013625 | 22 | 141 | 0.0 | 0.0 | 0.00 | 2.90 | 2.90 | 66 | 1002.5 |
| 20260505013459 | 22 | 141 | 0.0 | 0.0 | 0.00 | 2.90 | 2.90 | 66 | 1002.5 |
| 20260505013423 | 22 | 141 | 0.0 | 0.0 | 0.00 | 2.90 | 2.90 | 66 | 1002.4 |
| 20260505013257 | 22 | 141 | 0.0 | 0.0 | 0.00 | 2.90 | 2.90 | 65 | 1002.4 |
| 20260505013213 | 22 | 141 | 0.0 | 0.0 | 0.00 | 2.90 | 2.90 | 65 | 1002.4 |
| 20260505013121 | 22 | 141 | 0.0 | 0.0 | 0.00 | 2.90 | 2.90 | 65 | 1002.4 |
| 20260505013047 | 22 | 141 | 0.0 | 0.0 | 0.00 | 2.90 | 2.90 | 64 | 1002.4 |
| 20260505012958 | 22 | 141 | 0.0 | 0.0 | 0.00 | 2.90 | 2.90 | 64 | 1002.4 |
| 20260505012922 | 22 | 141 | 0.0 | 0.0 | 0.00 | 2.90 | 2.90 | 64 | 1002.4 |
| 20260505012815 | 22 | 141 | 0.0 | 0.0 | 0.00 | 2.90 | 2.90 | 64 | 1002.4 |
| 20260505012709 | 22 | 141 | 0.0 | 0.0 | 0.00 | 2.90 | 2.90 | 64 | 1002.4 |
| 20260505012613 | 22 | 141 | 0.0 | 0.0 | 0.00 | 2.90 | 2.90 | 64 | 1002.3 |
| 20260505012508 | 22 | 141 | 0.0 | 0.0 | 0.00 | 2.90 | 2.90 | 64 | 1002.3 |
| 20260505012406 | 22 | 141 | 0.0 | 0.0 | 0.00 | 2.90 | 2.90 | 63 | 1002.3 |
| 20260505012310 | 23 | 141 | 0.0 | 0.0 | 0.00 | 2.90 | 2.90 | 63 | 1002.3 |
| 20260505012205 | 23 | 141 | 0.0 | 0.0 | 0.00 | 2.90 | 2.90 | 62 | 1002.3 |
| 20260505012100 | 23 | 141 | 0.0 | 0.0 | 0.00 | 2.90 | 2.90 | 62 | 1002.3 |
| 20260505012004 | 23 | 141 | 0.0 | 0.0 | 0.00 | 2.90 | 2.90 | 62 | 1002.3 |
| 20260505011859 | 23 | 141 | 0.0 | 0.0 | 0.00 | 2.90 | 2.90 | 62 | 1002.3 |
| 20260505011754 | 23 | 141 | 0.0 | 0.0 | 0.00 | 2.90 | 2.90 | 60 | 1002.3 |
| 20260505011702 | 23 | 141 | 0.0 | 0.0 | 0.00 | 2.90 | 2.90 | 61 | 1002.3 |
| 20260505011634 | 23 | 141 | 0.0 | 0.0 | 0.00 | 2.90 | 2.90 | 61 | 1002.3 |
| 20260505011557 | 23 | 141 | 0.0 | 0.0 | 0.00 | 2.90 | 2.90 | 60 | 1002.2 |
| 20260505011521 | 23 | 141 | 0.0 | 0.0 | 0.00 | 2.90 | 2.90 | 60 | 1002.2 |
| 20260505011416 | 23 | 141 | 0.0 | 0.0 | 0.00 | 2.90 | 2.90 | 59 | 1002.2 |
| 20260505011341 | 23 | 141 | 0.0 | 0.0 | 0.00 | 2.90 | 2.90 | 59 | 1002.1 |
| 20260505011154 | 23 | 141 | 0.0 | 0.0 | 0.00 | 2.90 | 2.90 | 59 | 1002.1 |
| 20260505011109 | 23 | 141 | 0.0 | 0.0 | 0.00 | 2.90 | 2.90 | 59 | 1002.1 |
| 20260505011017 | 23 | 141 | 0.0 | 0.0 | 0.00 | 2.90 | 2.90 | 59 | 1002.1 |
| 20260505010912 | 23 | 141 | 0.0 | 0.0 | 0.00 | 2.90 | 2.90 | 59 | 1002.1 |
| 20260505010807 | 24 | 141 | 0.0 | 0.0 | 0.00 | 2.90 | 2.90 | 58 | 1002.0 |
| 20260505010731 | 24 | 141 | 0.0 | 0.0 | 0.00 | 2.90 | 2.90 | 58 | 1002.0 |
| 20260505010605 | 24 | 141 | 0.0 | 0.0 | 0.00 | 2.90 | 2.90 | 58 | 1002.0 |
| 20260505010509 | 24 | 141 | 0.0 | 0.0 | 0.00 | 2.90 | 2.90 | 58 | 1002.0 |
| 20260505010404 | 25 | 141 | 0.0 | 0.0 | 0.00 | 2.90 | 2.90 | 58 | 1002.0 |
| 20260505010303 | 25 | 141 | 0.0 | 0.0 | 0.00 | 2.90 | 2.90 | 57 | 1002.0 |
| 20260505010207 | 25 | 141 | 0.0 | 0.0 | 0.00 | 2.90 | 2.90 | 56 | 1001.9 |
| 20260505010142 | 25 | 141 | 0.0 | 0.0 | 0.00 | 2.90 | 2.90 | 55 | 1001.9 |
| 20260505010113 | 25 | 141 | 0.0 | 0.0 | 0.00 | 2.90 | 2.90 | 55 | 1002.0 |
| 20260505010003 | 25 | 141 | 0.0 | 0.0 | 0.00 | 2.90 | 2.90 | 55 | 1002.0 |
| 20260505005855 | 25 | 141 | 0.0 | 0.0 | 0.00 | 2.90 | 2.90 | 54 | 1001.9 |
| 20260505005809 | 25 | 141 | 0.0 | 0.0 | 0.00 | 2.90 | 2.90 | 55 | 1001.9 |
| 20260505005713 | 25 | 141 | 0.0 | 0.0 | 0.00 | 2.90 | 2.90 | 54 | 1001.9 |
| 20260505005628 | 25 | 141 | 0.0 | 0.0 | 0.00 | 2.90 | 2.90 | 54 | 1001.9 |
| 20260505005456 | 25 | 141 | 0.0 | 0.0 | 0.00 | 2.90 | 2.90 | 53 | 1001.9 |
| 20260505005410 | 26 | 141 | 0.0 | 0.0 | 0.00 | 2.90 | 2.90 | 53 | 1001.9 |
| 20260505005334 | 26 | 141 | 0.0 | 0.0 | 0.00 | 2.90 | 2.90 | 53 | 1001.8 |
| 20260505005208 | 26 | 141 | 0.0 | 0.0 | 0.00 | 2.90 | 2.90 | 53 | 1001.8 |
| 20260505005103 | 26 | 141 | 0.0 | 0.0 | 0.00 | 2.90 | 2.90 | 52 | 1001.8 |
| 20260505005007 | 26 | 141 | 0.0 | 0.0 | 0.00 | 2.90 | 2.90 | 51 | 1001.8 |
| 20260505004902 | 26 | 141 | 0.0 | 0.0 | 0.00 | 2.90 | 2.90 | 50 | 1001.8 |
| 20260505004801 | 26 | 141 | 0.0 | 0.0 | 0.00 | 2.90 | 2.90 | 50 | 1001.8 |
| 20260505004725 | 27 | 141 | 0.0 | 0.0 | 0.00 | 2.90 | 2.90 | 50 | 1001.8 |
| 20260505004628 | 27 | 141 | 0.0 | 0.0 | 0.00 | 2.90 | 2.90 | 50 | 1001.8 |
| 20260505004531 | 27 | 141 | 0.0 | 0.0 | 0.00 | 2.90 | 2.90 | 50 | 1001.8 |
| 20260505004404 | 27 | 141 | 0.0 | 0.0 | 0.00 | 2.90 | 2.90 | 50 | 1001.8 |
| 20260505004319 | 27 | 141 | 0.0 | 0.0 | 0.00 | 2.90 | 2.90 | 49 | 1001.8 |
| 20260505004202 | 27 | 141 | 0.0 | 0.0 | 0.00 | 2.90 | 2.90 | 49 | 1001.8 |
| 20260505004117 | 27 | 141 | 0.0 | 0.0 | 0.00 | 2.90 | 2.90 | 50 | 1001.8 |
| 20260505004020 | 27 | 141 | 0.0 | 0.0 | 0.00 | 2.90 | 2.90 | 50 | 1001.7 |
| 20260505003907 | 27 | 141 | 0.0 | 0.0 | 0.00 | 2.90 | 2.90 | 50 | 1001.8 |
| 20260505003802 | 27 | 141 | 0.0 | 0.0 | 0.00 | 2.90 | 2.90 | 50 | 1001.7 |
| 20260505003657 | 27 | 141 | 0.0 | 0.0 | 0.00 | 2.90 | 2.90 | 50 | 1001.7 |
| 20260505003621 | 27 | 141 | 0.0 | 0.0 | 0.00 | 2.90 | 2.90 | 50 | 1001.7 |
| 20260505003516 | 27 | 141 | 0.0 | 0.0 | 0.00 | 2.90 | 2.90 | 51 | 1001.7 |
| 20260505003440 | 27 | 141 | 0.0 | 0.0 | 0.00 | 2.90 | 2.90 | 50 | 1001.7 |
| 20260505003314 | 27 | 141 | 0.0 | 0.0 | 0.00 | 2.90 | 2.90 | 50 | 1001.7 |
| 20260505003209 | 27 | 141 | 0.0 | 0.0 | 0.00 | 2.90 | 2.90 | 50 | 1001.7 |
| 20260505003117 | 27 | 141 | 0.0 | 0.0 | 0.00 | 2.90 | 2.90 | 50 | 1001.6 |
| 20260505003042 | 26 | 141 | 0.0 | 0.0 | 0.00 | 2.90 | 2.90 | 50 | 1001.6 |
| 20260505003014 | 27 | 141 | 0.0 | 0.0 | 0.00 | 2.90 | 2.90 | 50 | 1001.6 |
| 20260505002918 | 26 | 141 | 0.0 | 0.0 | 0.00 | 2.90 | 2.90 | 50 | 1001.6 |
| 20260505002811 | 26 | 141 | 0.0 | 0.0 | 0.00 | 2.90 | 2.90 | 50 | 1001.6 |
| 20260505002706 | 26 | 141 | 0.0 | 0.0 | 0.00 | 2.90 | 2.90 | 50 | 1001.6 |
| 20260505002601 | 26 | 141 | 0.0 | 0.0 | 0.00 | 2.90 | 2.90 | 51 | 1001.6 |
| 20260505002509 | 26 | 141 | 0.0 | 0.0 | 0.00 | 2.90 | 2.90 | 51 | 1001.6 |
| 20260505002404 | 26 | 141 | 0.0 | 0.0 | 0.00 | 2.90 | 2.90 | 51 | 1001.6 |
| 20260505002259 | 26 | 141 | 0.0 | 0.0 | 0.00 | 2.90 | 2.90 | 51 | 1001.6 |
| 20260505002203 | 26 | 141 | 0.0 | 0.0 | 0.00 | 2.90 | 2.90 | 51 | 1001.6 |
| 20260505002118 | 26 | 141 | 0.0 | 0.0 | 0.00 | 2.90 | 2.90 | 50 | 1001.6 |
| 20260505002001 | 26 | 136 | 0.0 | 0.0 | 0.00 | 2.90 | 2.90 | 50 | 1001.6 |
| 20260505001804 | 26 | 242 | 0.0 | 0.0 | 0.00 | 2.90 | 2.90 | 50 | 1001.6 |
| 20260505001708 | 26 | 242 | 0.0 | 0.0 | 0.00 | 2.90 | 2.90 | 51 | 1001.6 |
| 20260505001603 | 26 | 242 | 0.0 | 0.0 | 0.00 | 2.90 | 2.90 | 50 | 1001.6 |
| 20260505001518 | 26 | 336 | 0.0 | 0.0 | 0.00 | 2.90 | 2.90 | 51 | 1001.6 |
| 20260505001458 | 26 | 188 | 0.0 | 0.0 | 0.00 | 2.90 | 2.90 | 51 | 1001.6 |
| 20260505001401 | 26 | 188 | 0.0 | 0.0 | 0.00 | 2.90 | 2.90 | 51 | 1001.6 |
| 20260505001257 | 26 | 188 | 0.0 | 0.0 | 0.00 | 2.90 | 2.90 | 51 | 1001.6 |
| 20260505001221 | 26 | 188 | 0.0 | 0.0 | 0.00 | 2.90 | 2.90 | 51 | 1001.6 |
| 20260505001100 | 26 | 188 | 0.0 | 0.0 | 0.00 | 2.90 | 2.90 | 50 | 1001.6 |
| 20260505000955 | 26 | 188 | 0.0 | 0.0 | 0.00 | 2.90 | 2.90 | 51 | 1001.6 |
| 20260505000919 | 26 | 120 | 0.0 | 0.0 | 0.00 | 2.90 | 2.90 | 50 | 1001.6 |
| 20260505000813 | 26 | 120 | 0.0 | 0.0 | 0.00 | 2.90 | 2.90 | 50 | 1001.7 |
| 20260505000716 | 26 | 239 | 0.0 | 0.0 | 0.00 | 2.90 | 2.90 | 50 | 1001.6 |
| 20260505000611 | 26 | 239 | 0.0 | 0.0 | 0.00 | 2.90 | 2.90 | 49 | 1001.6 |
| 20260505000507 | 26 | 135 | 0.0 | 0.0 | 0.00 | 2.90 | 2.90 | 49 | 1001.6 |
| 20260505000414 | 26 | 218 | 0.0 | 0.0 | 0.00 | 2.90 | 2.90 | 49 | 1001.6 |
| 20260505000329 | 26 | 162 | 0.0 | 4.8 | 0.00 | 2.90 | 2.90 | 49 | 1001.6 |
| 20260505000212 | 26 | 215 | 0.0 | 6.4 | 0.00 | 2.90 | 2.90 | 49 | 1001.7 |
| 20260505000151 | 26 | 215 | 0.0 | 6.4 | 0.00 | 2.90 | 2.90 | 49 | 1001.7 |
| 20260505000139 | 26 | 217 | 0.0 | 6.4 | 0.00 | 2.90 | 2.90 | 49 | 1001.7 |
| 20260505000006 | 26 | 253 | 0.0 | 6.4 | 0.00 | 2.90 | 2.90 | 49 | 1001.7 |
| 20260504235859 | 26 | 251 | 0.0 | 6.4 | 0.00 | 3.48 | 2.90 | 49 | 1001.7 |
| 20260504235823 | 26 | 250 | 0.0 | 8.0 | 0.00 | 3.48 | 2.90 | 49 | 1001.6 |
| 20260504235658 | 26 | 269 | 0.0 | 8.0 | 0.00 | 3.48 | 2.90 | 49 | 1001.7 |
| 20260504235556 | 26 | 223 | 1.6 | 8.0 | 0.00 | 3.48 | 2.90 | 49 | 1001.6 |
| 20260504235521 | 26 | 173 | 1.6 | 8.0 | 0.00 | 3.48 | 2.90 | 49 | 1001.6 |
| 20260504235416 | 26 | 276 | 0.0 | 8.0 | 0.00 | 3.48 | 2.90 | 48 | 1001.6 |
| 20260504235319 | 26 | 45 | 0.0 | 8.0 | 0.00 | 3.48 | 2.90 | 48 | 1001.6 |
| 20260504235223 | 26 | 292 | 0.0 | 8.0 | 0.00 | 3.48 | 2.90 | 48 | 1001.6 |
| 20260504235116 | 26 | 292 | 1.6 | 8.0 | 0.00 | 3.48 | 2.90 | 48 | 1001.6 |
| 20260504235011 | 26 | 250 | 1.6 | 8.0 | 0.00 | 3.48 | 2.90 | 48 | 1001.6 |
| 20260504234906 | 26 | 248 | 1.6 | 6.4 | 0.00 | 3.48 | 2.90 | 47 | 1001.6 |
| 20260504234835 | 26 | 210 | 3.2 | 11.3 | 0.00 | 3.48 | 2.90 | 47 | 1001.7 |
| 20260504234719 | 26 | 208 | 3.2 | 11.3 | 0.00 | 3.48 | 2.90 | 47 | 1001.7 |
| 20260504234632 | 27 | 221 | 1.6 | 11.3 | 0.00 | 3.48 | 2.90 | 47 | 1001.7 |
| 20260504234516 | 26 | 274 | 0.0 | 11.3 | 0.00 | 3.48 | 2.90 | 47 | 1001.6 |
| 20260504234505 | 27 | 277 | 1.6 | 11.3 | 0.00 | 3.48 | 2.90 | 47 | 1001.6 |
| 20260504234409 | 27 | 328 | 3.2 | 11.3 | 0.00 | 3.48 | 2.90 | 46 | 1001.7 |
| 20260504234304 | 27 | 25 | 3.2 | 11.3 | 0.00 | 3.48 | 2.90 | 47 | 1001.7 |
| 20260504234228 | 27 | 256 | 3.2 | 11.3 | 0.00 | 3.48 | 2.90 | 46 | 1001.6 |
| 20260504234103 | 27 | 268 | 3.2 | 11.3 | 0.00 | 3.48 | 2.90 | 46 | 1001.7 |
| 20260504234002 | 27 | 276 | 3.2 | 11.3 | 0.00 | 3.48 | 2.90 | 46 | 1001.7 |
| 20260504233905 | 27 | 155 | 3.2 | 9.7 | 0.00 | 3.48 | 2.90 | 46 | 1001.7 |
| 20260504233757 | 27 | 278 | 1.6 | 9.7 | 0.00 | 3.48 | 2.90 | 45 | 1001.7 |
| 20260504233721 | 27 | 162 | 1.6 | 9.7 | 0.00 | 3.48 | 2.90 | 45 | 1001.7 |
| 20260504233616 | 27 | 243 | 1.6 | 9.7 | 0.00 | 3.48 | 2.90 | 45 | 1001.6 |
| 20260504233541 | 27 | 98 | 3.2 | 9.7 | 0.00 | 3.48 | 2.90 | 45 | 1001.7 |
| 20260504233435 | 27 | 292 | 4.8 | 9.7 | 0.00 | 3.48 | 2.90 | 45 | 1001.7 |
| 20260504233318 | 27 | 140 | 3.2 | 12.9 | 0.00 | 3.48 | 2.90 | 45 | 1001.7 |
| 20260504233156 | 27 | 210 | 1.6 | 12.9 | 0.00 | 3.48 | 2.90 | 45 | 1001.7 |
| 20260504233124 | 27 | 232 | 0.0 | 12.9 | 0.00 | 3.48 | 2.90 | 45 | 1001.7 |
| 20260504233111 | 27 | 212 | 0.0 | 12.9 | 0.00 | 3.48 | 2.90 | 45 | 1001.7 |
| 20260504233018 | 27 | 277 | 3.2 | 12.9 | 0.00 | 3.48 | 2.90 | 45 | 1001.7 |
| 20260504232912 | 27 | 282 | 3.2 | 12.9 | 0.00 | 3.48 | 2.90 | 44 | 1001.7 |
| 20260504232806 | 27 | 187 | 3.2 | 12.9 | 0.00 | 3.48 | 2.90 | 44 | 1001.7 |
| 20260504232730 | 27 | 292 | 3.2 | 14.5 | 0.00 | 3.48 | 2.90 | 44 | 1001.7 |
| 20260504232604 | 27 | 285 | 4.8 | 14.5 | 0.00 | 3.48 | 2.90 | 44 | 1001.7 |
| 20260504232532 | 27 | 270 | 4.8 | 14.5 | 0.00 | 3.48 | 2.90 | 44 | 1001.7 |
| 20260504232416 | 27 | 267 | 3.2 | 14.5 | 0.00 | 3.48 | 2.90 | 44 | 1001.7 |
| 20260504232329 | 28 | 254 | 3.2 | 14.5 | 0.00 | 3.48 | 2.90 | 44 | 1001.8 |
| 20260504232203 | 28 | 137 | 3.2 | 14.5 | 0.00 | 3.48 | 2.90 | 44 | 1001.7 |
| 20260504232127 | 28 | 278 | 3.2 | 14.5 | 0.00 | 3.48 | 2.90 | 43 | 1001.7 |
| 20260504232030 | 28 | 243 | 4.8 | 14.5 | 0.00 | 3.48 | 2.90 | 43 | 1001.7 |
| 20260504231904 | 28 | 250 | 4.8 | 14.5 | 0.00 | 3.48 | 2.90 | 43 | 1001.7 |
| 20260504231759 | 28 | 276 | 3.2 | 11.3 | 0.00 | 3.48 | 2.90 | 43 | 1001.7 |
| 20260504231707 | 28 | 220 | 3.2 | 11.3 | 0.00 | 3.48 | 2.90 | 42 | 1001.7 |
| 20260504231602 | 28 | 210 | 3.2 | 11.3 | 0.00 | 3.48 | 2.90 | 42 | 1001.7 |
| 20260504231509 | 28 | 143 | 3.2 | 11.3 | 0.00 | 3.48 | 2.90 | 42 | 1001.6 |
| 20260504231457 | 28 | 153 | 3.2 | 11.3 | 0.00 | 3.48 | 2.90 | 42 | 1001.6 |
| 20260504231421 | 28 | 84 | 3.2 | 11.3 | 0.00 | 3.48 | 2.90 | 42 | 1001.7 |
| 20260504231255 | 28 | 255 | 3.2 | 11.3 | 0.00 | 3.48 | 2.90 | 42 | 1001.7 |
| 20260504231159 | 28 | 210 | 4.8 | 11.3 | 0.00 | 3.48 | 2.90 | 42 | 1001.7 |
| 20260504231055 | 28 | 210 | 4.8 | 11.3 | 0.00 | 3.48 | 2.90 | 41 | 1001.7 |
| 20260504231018 | 28 | 329 | 3.2 | 9.7 | 0.00 | 3.48 | 2.90 | 42 | 1001.7 |
| 20260504230917 | 28 | 342 | 3.2 | 9.7 | 0.00 | 3.48 | 2.90 | 42 | 1001.7 |
| 20260504230820 | 28 | 99 | 3.2 | 9.7 | 0.00 | 3.48 | 2.90 | 42 | 1001.8 |
| 20260504230654 | 28 | 183 | 1.6 | 9.7 | 0.00 | 3.48 | 2.90 | 42 | 1001.8 |
| 20260504230609 | 28 | 200 | 0.0 | 11.3 | 0.00 | 3.48 | 2.90 | 42 | 1001.8 |
| 20260504230513 | 28 | 229 | 0.0 | 12.9 | 0.00 | 3.48 | 2.90 | 43 | 1001.8 |
| 20260504230408 | 28 | 250 | 1.6 | 12.9 | 0.00 | 3.48 | 2.90 | 43 | 1001.8 |
| 20260504230303 | 28 | 302 | 3.2 | 12.9 | 0.00 | 3.48 | 2.90 | 42 | 1001.8 |
| 20260504230231 | 28 | 250 | 1.6 | 12.9 | 0.00 | 3.48 | 2.90 | 42 | 1001.8 |
| 20260504230126 | 28 | 141 | 1.6 | 12.9 | 0.00 | 3.48 | 2.90 | 42 | 1001.8 |
| 20260504230045 | 28 | 293 | 0.0 | 12.9 | 0.00 | 3.48 | 2.90 | 43 | 1001.8 |
| 20260504230005 | 28 | 155 | 0.0 | 16.1 | 0.00 | 3.48 | 2.90 | 42 | 1001.9 |
| 20260504225857 | 28 | 131 | 3.2 | 16.1 | 0.00 | 4.80 | 2.90 | 42 | 1001.8 |
| 20260504225821 | 28 | 352 | 3.2 | 16.1 | 0.00 | 4.80 | 2.90 | 43 | 1001.8 |
| 20260504225655 | 28 | 242 | 3.2 | 16.1 | 0.00 | 4.80 | 2.90 | 42 | 1001.8 |
| 20260504225559 | 28 | 288 | 4.8 | 16.1 | 0.00 | 4.80 | 2.90 | 43 | 1001.8 |
| 20260504225458 | 28 | 273 | 3.2 | 16.1 | 0.00 | 4.80 | 2.90 | 43 | 1001.7 |
| 20260504225422 | 28 | 257 | 4.8 | 16.1 | 0.00 | 4.80 | 2.90 | 43 | 1001.7 |
| 20260504225257 | 28 | 167 | 4.8 | 16.1 | 0.00 | 4.80 | 2.90 | 43 | 1001.8 |
| 20260504225211 | 28 | 296 | 4.8 | 16.1 | 0.00 | 4.80 | 2.90 | 43 | 1001.7 |
| 20260504225115 | 28 | 212 | 6.4 | 16.1 | 0.00 | 4.80 | 2.90 | 42 | 1001.7 |
| 20260504225010 | 28 | 212 | 4.8 | 12.9 | 0.00 | 4.80 | 2.90 | 43 | 1001.7 |
| 20260504224905 | 28 | 250 | 3.2 | 12.9 | 0.00 | 4.80 | 2.90 | 43 | 1001.7 |
| 20260504224813 | 28 | 238 | 3.2 | 12.9 | 0.00 | 4.80 | 2.90 | 43 | 1001.7 |
| 20260504224708 | 28 | 202 | 4.8 | 12.9 | 0.00 | 4.80 | 2.90 | 44 | 1001.7 |
| 20260504224603 | 28 | 252 | 4.8 | 12.9 | 0.00 | 4.80 | 2.90 | 44 | 1001.7 |
| 20260504224509 | 27 | 304 | 3.2 | 11.3 | 0.00 | 4.80 | 2.90 | 43 | 1001.7 |
| 20260504224457 | 28 | 306 | 4.8 | 11.3 | 0.00 | 4.80 | 2.90 | 43 | 1001.7 |
| 20260504224401 | 28 | 237 | 3.2 | 11.3 | 0.00 | 4.80 | 2.90 | 44 | 1001.7 |
| 20260504224256 | 27 | 142 | 3.2 | 11.3 | 0.00 | 4.80 | 2.90 | 44 | 1001.7 |
| 20260504224220 | 27 | 232 | 1.6 | 11.3 | 0.00 | 4.80 | 2.90 | 44 | 1001.7 |
| 20260504224058 | 27 | 111 | 3.2 | 11.3 | 0.00 | 4.80 | 2.90 | 44 | 1001.7 |
| 20260504224022 | 27 | 103 | 3.2 | 11.3 | 0.00 | 4.80 | 2.90 | 44 | 1001.7 |
| 20260504223917 | 27 | 94 | 4.8 | 11.3 | 0.00 | 4.80 | 2.90 | 44 | 1001.7 |
| 20260504223842 | 27 | 129 | 4.8 | 11.3 | 0.00 | 4.80 | 2.90 | 43 | 1001.8 |
| 20260504223656 | 27 | 150 | 4.8 | 11.3 | 0.00 | 4.80 | 2.90 | 44 | 1001.7 |
| 20260504223621 | 27 | 243 | 4.8 | 11.3 | 0.00 | 4.80 | 2.90 | 46 | 1001.8 |
| 20260504223515 | 27 | 238 | 4.8 | 11.3 | 0.00 | 4.80 | 2.90 | 45 | 1001.8 |
| 20260504223439 | 27 | 329 | 4.8 | 11.3 | 0.00 | 4.80 | 2.90 | 45 | 1001.8 |
| 20260504223256 | 27 | 278 | 4.8 | 11.3 | 0.00 | 4.80 | 2.90 | 44 | 1001.8 |
| 20260504223211 | 27 | 338 | 4.8 | 11.3 | 0.00 | 4.80 | 2.90 | 45 | 1001.8 |
| 20260504223114 | 27 | 258 | 4.8 | 11.3 | 0.00 | 4.80 | 2.90 | 44 | 1001.8 |
| 20260504223057 | 27 | 267 | 4.8 | 11.3 | 0.00 | 4.80 | 2.90 | 44 | 1001.8 |
| 20260504223011 | 27 | 222 | 6.4 | 12.9 | 0.00 | 4.80 | 2.90 | 45 | 1001.8 |
| 20260504222904 | 27 | 256 | 4.8 | 12.9 | 0.00 | 4.80 | 2.90 | 44 | 1001.7 |
| 20260504222759 | 27 | 261 | 1.6 | 12.9 | 0.00 | 4.80 | 2.90 | 45 | 1001.8 |
| 20260504222703 | 27 | 274 | 1.6 | 12.9 | 0.00 | 4.80 | 2.90 | 45 | 1001.8 |
| 20260504222602 | 27 | 261 | 3.2 | 12.9 | 0.00 | 4.80 | 2.90 | 46 | 1001.8 |
| 20260504222457 | 27 | 294 | 3.2 | 12.9 | 0.00 | 4.80 | 2.90 | 45 | 1001.8 |
| 20260504222401 | 27 | 280 | 3.2 | 12.9 | 0.00 | 4.80 | 2.90 | 45 | 1001.8 |
| 20260504222326 | 27 | 262 | 3.2 | 12.9 | 0.00 | 4.80 | 2.90 | 45 | 1001.8 |
| 20260504222159 | 27 | 275 | 4.8 | 12.9 | 0.00 | 4.80 | 2.90 | 45 | 1001.8 |
| 20260504222054 | 27 | 318 | 6.4 | 12.9 | 0.00 | 4.80 | 2.90 | 44 | 1001.8 |
| 20260504222018 | 27 | 268 | 6.4 | 12.9 | 0.00 | 4.80 | 2.90 | 45 | 1001.8 |
| 20260504221857 | 27 | 230 | 4.8 | 11.3 | 0.00 | 4.80 | 2.90 | 45 | 1001.8 |
| 20260504221821 | 27 | 236 | 4.8 | 11.3 | 0.00 | 4.80 | 2.90 | 45 | 1001.8 |
| 20260504221715 | 27 | 281 | 4.8 | 12.9 | 0.00 | 4.80 | 2.90 | 45 | 1001.8 |
| 20260504221639 | 27 | 323 | 4.8 | 12.9 | 0.00 | 4.80 | 2.90 | 45 | 1001.9 |
| 20260504221600 | 26 | 245 | 3.2 | 12.9 | 0.00 | 4.80 | 2.90 | 45 | 1001.9 |
| 20260504221511 | 27 | 294 | 3.2 | 12.9 | 0.00 | 4.80 | 2.90 | 45 | 1001.9 |
| 20260504221406 | 27 | 294 | 3.2 | 12.9 | 0.00 | 4.80 | 2.90 | 46 | 1001.9 |
| 20260504221331 | 27 | 297 | 1.6 | 12.9 | 0.00 | 4.80 | 2.90 | 45 | 1001.9 |
| 20260504221222 | 27 | 124 | 1.6 | 14.5 | 0.00 | 4.80 | 2.90 | 45 | 1001.9 |
| 20260504221109 | 27 | 286 | 3.2 | 14.5 | 0.00 | 4.80 | 2.90 | 45 | 1001.9 |
| 20260504221033 | 27 | 262 | 6.4 | 14.5 | 0.00 | 4.80 | 2.90 | 45 | 1001.9 |
| 20260504220906 | 26 | 219 | 4.8 | 14.5 | 0.00 | 4.80 | 2.90 | 45 | 1001.9 |
| 20260504220801 | 26 | 163 | 6.4 | 14.5 | 0.00 | 4.80 | 2.90 | 45 | 1002.0 |
| 20260504220657 | 26 | 295 | 6.4 | 14.5 | 0.00 | 4.80 | 2.90 | 45 | 1002.0 |
| 20260504220621 | 26 | 222 | 6.4 | 14.5 | 0.00 | 4.80 | 2.90 | 45 | 1002.0 |
| 20260504220455 | 26 | 239 | 6.4 | 14.5 | 0.00 | 4.80 | 2.90 | 45 | 1001.9 |
| 20260504220418 | 26 | 276 | 6.4 | 14.5 | 0.00 | 4.80 | 2.90 | 45 | 1001.9 |
| 20260504220321 | 26 | 307 | 4.8 | 19.3 | 0.00 | 4.80 | 2.90 | 45 | 1001.9 |
| 20260504220158 | 26 | 265 | 3.2 | 19.3 | 0.00 | 4.80 | 2.90 | 45 | 1001.9 |
| 20260504220134 | 26 | 284 | 3.2 | 19.3 | 0.00 | 4.80 | 2.90 | 45 | 1001.9 |
| 20260504220021 | 26 | 263 | 3.2 | 19.3 | 0.00 | 4.80 | 2.90 | 45 | 1001.9 |
| 20260504215934 | 26 | 323 | 3.2 | 19.3 | 0.00 | 4.83 | 2.90 | 45 | 1002.0 |
| 20260504215817 | 26 | 148 | 1.6 | 19.3 | 0.00 | 4.83 | 2.90 | 45 | 1002.0 |
| 20260504215711 | 26 | 250 | 4.8 | 19.3 | 0.00 | 4.83 | 2.90 | 45 | 1002.0 |
| 20260504215606 | 26 | 259 | 6.4 | 19.3 | 0.00 | 4.83 | 2.90 | 44 | 1002.1 |
| 20260504215508 | 26 | 302 | 8.0 | 19.3 | 0.00 | 4.83 | 2.90 | 44 | 1002.1 |
| 20260504215406 | 26 | 300 | 6.4 | 12.9 | 0.00 | 4.83 | 2.90 | 44 | 1002.1 |
| 20260504215311 | 27 | 214 | 4.8 | 12.9 | 0.00 | 4.83 | 2.90 | 44 | 1002.1 |
| 20260504215205 | 27 | 262 | 4.8 | 12.9 | 0.00 | 4.83 | 2.90 | 43 | 1002.1 |
| 20260504215101 | 27 | 299 | 8.0 | 12.9 | 0.00 | 4.83 | 2.90 | 43 | 1002.1 |
| 20260504215005 | 27 | 296 | 6.4 | 12.9 | 0.00 | 4.83 | 2.90 | 43 | 1002.2 |
| 20260504214859 | 27 | 286 | 4.8 | 12.9 | 0.00 | 4.83 | 2.90 | 44 | 1002.2 |
| 20260504214823 | 27 | 291 | 3.2 | 12.9 | 0.00 | 4.83 | 2.90 | 45 | 1002.1 |
| 20260504214700 | 27 | 51 | 0.0 | 12.9 | 0.00 | 4.83 | 2.90 | 45 | 1002.2 |
| 20260504214624 | 27 | 324 | 1.6 | 14.5 | 0.00 | 4.83 | 2.90 | 44 | 1002.1 |
| 20260504214542 | 26 | 15 | 1.6 | 14.5 | 0.00 | 4.83 | 2.90 | 44 | 1002.1 |
| 20260504214459 | 27 | 338 | 4.8 | 14.5 | 0.00 | 4.83 | 2.90 | 44 | 1002.2 |
| 20260504214422 | 27 | 266 | 4.8 | 16.1 | 0.00 | 4.83 | 2.90 | 43 | 1002.2 |
| 20260504214257 | 27 | 286 | 4.8 | 16.1 | 0.00 | 4.83 | 2.90 | 44 | 1002.2 |
| 20260504214212 | 27 | 246 | 4.8 | 16.1 | 0.00 | 4.83 | 2.90 | 43 | 1002.2 |
| 20260504214115 | 27 | 256 | 8.0 | 16.1 | 0.00 | 4.83 | 2.90 | 43 | 1002.2 |
| 20260504214030 | 27 | 283 | 8.0 | 16.1 | 0.00 | 4.83 | 2.90 | 43 | 1002.2 |
| 20260504213917 | 27 | 295 | 6.4 | 16.1 | 0.00 | 4.83 | 2.90 | 42 | 1002.2 |
| 20260504213832 | 27 | 271 | 6.4 | 16.1 | 0.00 | 4.83 | 2.90 | 42 | 1002.1 |
| 20260504213714 | 27 | 240 | 8.0 | 16.1 | 0.00 | 4.83 | 2.90 | 42 | 1002.1 |
| 20260504213609 | 27 | 254 | 6.4 | 16.1 | 0.00 | 4.83 | 2.90 | 43 | 1002.1 |
| 20260504213504 | 27 | 257 | 3.2 | 17.7 | 0.00 | 4.83 | 2.90 | 44 | 1002.1 |
| 20260504213408 | 27 | 6 | 4.8 | 17.7 | 0.00 | 4.83 | 2.90 | 43 | 1002.1 |
| 20260504213303 | 27 | 160 | 4.8 | 17.7 | 0.00 | 4.83 | 2.90 | 43 | 1002.1 |
| 20260504213202 | 27 | 296 | 4.8 | 17.7 | 0.00 | 4.83 | 2.90 | 43 | 1002.1 |
| 20260504213126 | 27 | 198 | 3.2 | 17.7 | 0.00 | 4.83 | 2.90 | 42 | 1002.2 |
| 20260504213032 | 27 | 307 | 1.6 | 17.7 | 0.00 | 4.83 | 2.90 | 44 | 1002.2 |
| 20260504212904 | 27 | 264 | 6.4 | 17.7 | 0.03 | 4.83 | 2.90 | 42 | 1002.2 |
| 20260504212759 | 27 | 176 | 8.0 | 17.7 | 0.10 | 4.83 | 2.90 | 42 | 1002.2 |
| 20260504212703 | 27 | 250 | 6.4 | 17.7 | 0.10 | 4.83 | 2.90 | 42 | 1002.3 |
| 20260504212558 | 27 | 293 | 4.8 | 17.7 | 0.10 | 4.83 | 2.90 | 43 | 1002.3 |
| 20260504212522 | 27 | 156 | 4.8 | 17.7 | 0.10 | 4.83 | 2.90 | 43 | 1002.2 |
| 20260504212400 | 27 | 300 | 4.8 | 17.7 | 0.10 | 4.83 | 2.90 | 43 | 1002.2 |
| 20260504212255 | 27 | 249 | 4.8 | 17.7 | 0.10 | 4.83 | 2.90 | 42 | 1002.3 |
| 20260504212219 | 27 | 146 | 4.8 | 17.7 | 0.10 | 4.83 | 2.90 | 42 | 1002.2 |
| 20260504212122 | 27 | 271 | 6.4 | 17.7 | 0.10 | 4.83 | 2.90 | 43 | 1002.2 |
| 20260504211957 | 27 | 261 | 3.2 | 14.5 | 0.10 | 4.83 | 2.90 | 43 | 1002.2 |
| 20260504211912 | 27 | 285 | 1.6 | 14.5 | 0.10 | 4.83 | 2.90 | 41 | 1002.2 |
| 20260504211816 | 27 | 203 | 3.2 | 14.5 | 0.10 | 4.83 | 2.90 | 42 | 1002.2 |
| 20260504211732 | 27 | 152 | 3.2 | 14.5 | 0.10 | 4.83 | 2.90 | 41 | 1002.2 |
| 20260504211620 | 27 | 286 | 1.6 | 14.5 | 0.10 | 4.83 | 2.90 | 41 | 1002.2 |
| 20260504211555 | 27 | 200 | 1.6 | 14.5 | 0.10 | 4.83 | 2.90 | 41 | 1002.2 |
| 20260504211454 | 28 | 339 | 6.4 | 14.5 | 0.10 | 4.83 | 2.90 | 41 | 1002.2 |
| 20260504211409 | 28 | 214 | 8.0 | 14.5 | 0.10 | 4.83 | 2.90 | 40 | 1002.2 |
| 20260504211333 | 28 | 241 | 8.0 | 14.5 | 0.10 | 4.83 | 2.90 | 40 | 1002.1 |
| 20260504211207 | 28 | 266 | 8.0 | 14.5 | 0.10 | 4.83 | 2.90 | 40 | 1002.2 |
| 20260504211111 | 28 | 255 | 6.4 | 14.5 | 0.10 | 4.83 | 2.90 | 41 | 1002.2 |
| 20260504211005 | 28 | 226 | 3.2 | 12.9 | 0.10 | 4.83 | 2.90 | 42 | 1002.2 |
| 20260504210929 | 28 | 157 | 1.6 | 12.9 | 0.10 | 4.83 | 2.90 | 42 | 1002.2 |
| 20260504210807 | 28 | 115 | 1.6 | 12.9 | 0.10 | 4.83 | 2.90 | 42 | 1002.2 |
| 20260504210702 | 28 | 269 | 3.2 | 19.3 | 0.10 | 4.83 | 2.90 | 41 | 1002.2 |
| 20260504210606 | 28 | 148 | 6.4 | 19.3 | 0.10 | 4.83 | 2.90 | 42 | 1002.3 |
| 20260504210522 | 28 | 259 | 4.8 | 19.3 | 0.10 | 4.83 | 2.90 | 41 | 1002.2 |
| 20260504210425 | 28 | 282 | 4.8 | 19.3 | 0.13 | 4.83 | 2.90 | 41 | 1002.3 |
| 20260504210259 | 28 | 138 | 1.6 | 19.3 | 0.41 | 4.83 | 2.90 | 40 | 1002.2 |
| 20260504210222 | 28 | 83 | 1.6 | 19.3 | 0.41 | 4.83 | 2.90 | 41 | 1002.3 |
| 20260504210158 | 28 | 267 | 1.6 | 19.3 | 0.41 | 4.83 | 2.90 | 41 | 1002.3 |
| 20260504210046 | 27 | 233 | 4.8 | 19.3 | 0.41 | 4.83 | 2.90 | 41 | 1002.3 |
| 20260504205959 | 28 | 113 | 6.4 | 19.3 | 0.41 | 4.83 | 2.90 | 40 | 1002.3 |
| 20260504205922 | 28 | 100 | 8.0 | 19.3 | 0.41 | 5.46 | 2.90 | 40 | 1002.3 |
| 20260504205815 | 28 | 278 | 6.4 | 17.7 | 0.41 | 5.46 | 2.90 | 40 | 1002.3 |
| 20260504205710 | 28 | 37 | 8.0 | 17.7 | 0.41 | 5.46 | 2.90 | 40 | 1002.3 |
| 20260504205634 | 28 | 288 | 8.0 | 17.7 | 0.41 | 5.46 | 2.90 | 39 | 1002.3 |
| 20260504205508 | 28 | 291 | 6.4 | 17.7 | 0.41 | 5.46 | 2.90 | 39 | 1002.3 |
| 20260504205403 | 28 | 257 | 3.2 | 17.7 | 0.41 | 5.46 | 2.90 | 40 | 1002.3 |
| 20260504205312 | 28 | 259 | 3.2 | 17.7 | 0.41 | 5.46 | 2.90 | 40 | 1002.3 |
| 20260504205206 | 28 | 293 | 4.8 | 17.7 | 0.41 | 5.46 | 2.90 | 40 | 1002.3 |
| 20260504205100 | 28 | 256 | 4.8 | 17.7 | 0.41 | 5.46 | 2.90 | 40 | 1002.4 |
| 20260504205004 | 28 | 313 | 3.2 | 12.9 | 0.41 | 5.46 | 2.90 | 40 | 1002.4 |
| 20260504204859 | 28 | 146 | 4.8 | 14.5 | 0.41 | 5.46 | 2.90 | 39 | 1002.4 |
| 20260504204823 | 28 | 145 | 6.4 | 14.5 | 0.41 | 5.46 | 2.90 | 39 | 1002.4 |
| 20260504204657 | 28 | 217 | 4.8 | 14.5 | 0.41 | 5.46 | 2.90 | 38 | 1002.5 |
| 20260504204609 | 28 | 204 | 3.2 | 14.5 | 0.41 | 5.46 | 2.90 | 39 | 1002.5 |
| 20260504204556 | 28 | 271 | 3.2 | 14.5 | 0.41 | 5.46 | 2.90 | 39 | 1002.5 |
| 20260504204500 | 28 | 274 | 1.6 | 14.5 | 0.41 | 5.46 | 2.90 | 40 | 1002.4 |
| 20260504204415 | 28 | 300 | 3.2 | 14.5 | 0.41 | 5.46 | 2.90 | 40 | 1002.4 |
| 20260504204339 | 28 | 236 | 4.8 | 14.5 | 0.41 | 5.46 | 2.90 | 39 | 1002.4 |
| 20260504204242 | 28 | 224 | 6.4 | 14.5 | 0.41 | 5.46 | 2.90 | 39 | 1002.4 |
| 20260504204115 | 28 | 221 | 4.8 | 14.5 | 0.41 | 5.46 | 2.90 | 39 | 1002.4 |
| 20260504204017 | 28 | 158 | 4.8 | 16.1 | 0.41 | 5.46 | 2.90 | 40 | 1002.4 |
| 20260504203912 | 28 | 259 | 4.8 | 16.1 | 0.41 | 5.46 | 2.90 | 40 | 1002.4 |
| 20260504203807 | 28 | 251 | 3.2 | 16.1 | 0.41 | 5.46 | 2.90 | 40 | 1002.4 |
| 20260504203715 | 28 | 248 | 6.4 | 16.1 | 0.41 | 5.46 | 2.90 | 40 | 1002.4 |
| 20260504203609 | 28 | 262 | 6.4 | 16.1 | 0.41 | 5.46 | 2.90 | 40 | 1002.4 |
| 20260504203513 | 28 | 248 | 6.4 | 16.1 | 0.41 | 5.46 | 2.90 | 40 | 1002.5 |
| 20260504203427 | 28 | 276 | 6.4 | 16.1 | 0.41 | 5.46 | 2.90 | 40 | 1002.4 |
| 20260504203308 | 28 | 288 | 6.4 | 16.1 | 0.46 | 5.46 | 2.90 | 40 | 1002.4 |
| 20260504203203 | 28 | 247 | 4.8 | 16.1 | 0.46 | 5.46 | 2.90 | 40 | 1002.4 |
| 20260504203127 | 28 | 275 | 3.2 | 14.5 | 0.46 | 5.46 | 2.90 | 40 | 1002.5 |
| 20260504203018 | 28 | 313 | 1.6 | 14.5 | 0.46 | 5.46 | 2.90 | 41 | 1002.4 |
| 20260504203002 | 28 | 242 | 3.2 | 16.1 | 0.46 | 5.46 | 2.90 | 40 | 1002.4 |
| 20260504202909 | 28 | 213 | 4.8 | 16.1 | 0.36 | 5.44 | 2.87 | 39 | 1002.4 |
| 20260504202804 | 28 | 195 | 6.4 | 16.1 | 0.36 | 5.44 | 2.87 | 40 | 1002.5 |
| 20260504202659 | 28 | 203 | 4.8 | 16.1 | 0.36 | 5.44 | 2.87 | 40 | 1002.5 |
| 20260504202603 | 28 | 129 | 4.8 | 16.1 | 0.36 | 5.44 | 2.87 | 40 | 1002.4 |
| 20260504202457 | 28 | 333 | 6.4 | 16.1 | 0.36 | 5.44 | 2.87 | 39 | 1002.6 |
| 20260504202356 | 28 | 235 | 4.8 | 16.1 | 0.36 | 5.44 | 2.87 | 40 | 1002.6 |
| 20260504202320 | 28 | 119 | 4.8 | 16.1 | 0.36 | 5.44 | 2.87 | 39 | 1002.5 |
| 20260504202155 | 28 | 220 | 4.8 | 16.1 | 0.36 | 5.44 | 2.87 | 40 | 1002.6 |
| 20260504202054 | 28 | 223 | 4.8 | 12.9 | 0.36 | 5.44 | 2.87 | 40 | 1002.6 |
| 20260504202018 | 28 | 107 | 4.8 | 12.9 | 0.36 | 5.44 | 2.87 | 41 | 1002.6 |
| 20260504201912 | 28 | 273 | 4.8 | 12.9 | 0.36 | 5.44 | 2.87 | 40 | 1002.6 |
| 20260504201807 | 28 | 176 | 6.4 | 14.5 | 0.36 | 5.44 | 2.87 | 39 | 1002.7 |
| 20260504201711 | 28 | 309 | 6.4 | 14.5 | 0.36 | 5.44 | 2.87 | 39 | 1002.6 |
| 20260504201642 | 28 | 270 | 4.8 | 14.5 | 0.36 | 5.44 | 2.87 | 39 | 1002.6 |
| 20260504201605 | 28 | 259 | 4.8 | 14.5 | 0.36 | 5.44 | 2.87 | 39 | 1002.6 |
| 20260504201529 | 28 | 271 | 4.8 | 14.5 | 0.36 | 5.44 | 2.87 | 40 | 1002.6 |
| 20260504201407 | 28 | 98 | 6.4 | 14.5 | 0.36 | 5.44 | 2.87 | 40 | 1002.6 |
| 20260504201302 | 28 | 281 | 6.4 | 14.5 | 0.36 | 5.44 | 2.87 | 39 | 1002.7 |
| 20260504201205 | 28 | 242 | 4.8 | 14.5 | 0.36 | 5.44 | 2.87 | 39 | 1002.6 |
| 20260504201101 | 28 | 35 | 6.4 | 14.5 | 0.36 | 5.44 | 2.87 | 40 | 1002.6 |
| 20260504200956 | 28 | 305 | 6.4 | 14.5 | 0.36 | 5.44 | 2.87 | 39 | 1002.7 |
| 20260504200859 | 28 | 285 | 4.8 | 14.5 | 0.36 | 5.44 | 2.87 | 39 | 1002.7 |
| 20260504200754 | 28 | 329 | 3.2 | 16.1 | 0.36 | 5.44 | 2.87 | 40 | 1002.7 |
| 20260504200722 | 28 | 326 | 4.8 | 16.1 | 0.36 | 5.44 | 2.87 | 40 | 1002.6 |
| 20260504200557 | 28 | 247 | 6.4 | 16.1 | 0.36 | 5.44 | 2.87 | 40 | 1002.6 |
| 20260504200511 | 28 | 189 | 6.4 | 16.1 | 0.36 | 5.44 | 2.87 | 41 | 1002.6 |
| 20260504200415 | 28 | 323 | 6.4 | 16.1 | 0.23 | 5.44 | 2.87 | 41 | 1002.7 |
| 20260504200330 | 28 | 281 | 6.4 | 16.1 | 0.05 | 5.41 | 2.84 | 41 | 1002.7 |
| 20260504200233 | 28 | 241 | 6.4 | 16.1 | 0.05 | 5.41 | 2.84 | 41 | 1002.6 |
| 20260504200129 | 28 | 310 | 8.0 | 16.1 | 0.05 | 5.41 | 2.84 | 40 | 1002.6 |
| 20260504200056 | 28 | 219 | 8.0 | 17.7 | 0.05 | 5.41 | 2.84 | 41 | 1002.7 |
| 20260504200008 | 28 | 250 | 8.0 | 17.7 | 0.05 | 5.41 | 2.84 | 40 | 1002.7 |
| 20260504195905 | 28 | 254 | 4.8 | 17.7 | 0.05 | 5.44 | 2.84 | 40 | 1002.7 |
| 20260504195809 | 28 | 154 | 4.8 | 17.7 | 0.05 | 5.44 | 2.84 | 41 | 1002.7 |
| 20260504195704 | 28 | 270 | 6.4 | 17.7 | 0.05 | 5.44 | 2.84 | 40 | 1002.6 |
| 20260504195559 | 28 | 225 | 4.8 | 17.7 | 0.05 | 5.44 | 2.84 | 40 | 1002.7 |
| 20260504195524 | 28 | 243 | 4.8 | 17.7 | 0.05 | 5.44 | 2.84 | 40 | 1002.7 |
| 20260504195357 | 28 | 314 | 6.4 | 17.7 | 0.05 | 5.44 | 2.84 | 39 | 1002.7 |
| 20260504195321 | 28 | 270 | 8.0 | 17.7 | 0.05 | 5.44 | 2.84 | 40 | 1002.7 |
| 20260504195219 | 28 | 145 | 6.4 | 17.7 | 0.05 | 5.44 | 2.84 | 41 | 1002.7 |
| 20260504195102 | 28 | 238 | 3.2 | 16.1 | 0.05 | 5.44 | 2.84 | 41 | 1002.7 |
| 20260504194956 | 28 | 311 | 3.2 | 17.7 | 0.05 | 5.44 | 2.84 | 39 | 1002.6 |
| 20260504194920 | 28 | 132 | 4.8 | 17.7 | 0.05 | 5.44 | 2.84 | 39 | 1002.7 |
| 20260504194756 | 28 | 134 | 6.4 | 17.7 | 0.05 | 5.44 | 2.84 | 40 | 1002.7 |
| 20260504194709 | 28 | 160 | 8.0 | 17.7 | 0.05 | 5.44 | 2.84 | 40 | 1002.7 |
| 20260504194614 | 27 | 209 | 8.0 | 17.7 | 0.05 | 5.44 | 2.84 | 40 | 1002.8 |
| 20260504194603 | 28 | 280 | 8.0 | 17.7 | 0.05 | 5.44 | 2.84 | 40 | 1002.8 |
| 20260504194511 | 28 | 160 | 6.4 | 17.7 | 0.05 | 5.44 | 2.84 | 40 | 1002.8 |
| 20260504194405 | 28 | 338 | 6.4 | 17.7 | 0.05 | 5.44 | 2.84 | 40 | 1002.8 |
| 20260504194259 | 28 | 272 | 9.7 | 17.7 | 0.05 | 5.44 | 2.84 | 39 | 1002.8 |
| 20260504194203 | 28 | 228 | 8.0 | 17.7 | 0.05 | 5.44 | 2.84 | 39 | 1002.7 |
| 20260504194058 | 28 | 279 | 6.4 | 16.1 | 0.05 | 5.44 | 2.84 | 42 | 1002.7 |
| 20260504194023 | 28 | 258 | 4.8 | 19.3 | 0.05 | 5.44 | 2.84 | 43 | 1002.7 |
| 20260504193857 | 28 | 188 | 4.8 | 19.3 | 0.05 | 5.44 | 2.84 | 41 | 1002.7 |
| 20260504193756 | 27 | 234 | 8.0 | 19.3 | 0.05 | 5.44 | 2.84 | 40 | 1002.7 |
| 20260504193720 | 27 | 256 | 8.0 | 19.3 | 0.05 | 5.44 | 2.84 | 41 | 1002.7 |
| 20260504193554 | 27 | 330 | 8.0 | 19.3 | 0.05 | 5.44 | 2.84 | 41 | 1002.7 |
| 20260504193518 | 27 | 287 | 9.7 | 19.3 | 0.05 | 5.44 | 2.84 | 40 | 1002.7 |
| 20260504193413 | 28 | 281 | 8.0 | 19.3 | 0.05 | 5.44 | 2.84 | 41 | 1002.7 |
| 20260504193308 | 28 | 235 | 8.0 | 19.3 | 0.00 | 5.44 | 2.84 | 41 | 1002.7 |
| 20260504193212 | 28 | 322 | 6.4 | 19.3 | 0.00 | 5.44 | 2.84 | 41 | 1002.7 |
| 20260504193111 | 28 | 277 | 6.4 | 19.3 | 0.00 | 5.44 | 2.84 | 41 | 1002.7 |
| 20260504193022 | 27 | 274 | 6.4 | 19.3 | 0.00 | 5.44 | 2.84 | 39 | 1002.7 |
| 20260504193008 | 28 | 294 | 6.4 | 19.3 | 0.00 | 5.44 | 2.84 | 39 | 1002.7 |
| 20260504192911 | 28 | 173 | 4.8 | 19.3 | 0.00 | 5.44 | 2.84 | 40 | 1002.7 |
| 20260504192806 | 28 | 163 | 6.4 | 20.9 | 0.00 | 5.44 | 2.84 | 39 | 1002.7 |
| 20260504192730 | 28 | 74 | 11.3 | 20.9 | 0.00 | 5.44 | 2.84 | 38 | 1002.8 |
| 20260504192604 | 28 | 293 | 8.0 | 20.9 | 0.00 | 5.44 | 2.84 | 40 | 1002.7 |
| 20260504192459 | 28 | 266 | 6.4 | 20.9 | 0.00 | 5.44 | 2.84 | 40 | 1002.8 |
| 20260504192407 | 28 | 231 | 6.4 | 20.9 | 0.00 | 5.44 | 2.84 | 40 | 1002.8 |
| 20260504192304 | 28 | 268 | 8.0 | 20.9 | 0.00 | 5.44 | 2.84 | 40 | 1002.7 |
| 20260504192157 | 28 | 184 | 6.4 | 20.9 | 0.00 | 5.44 | 2.84 | 40 | 1002.8 |
| 20260504192100 | 28 | 136 | 6.4 | 20.9 | 0.00 | 5.44 | 2.84 | 40 | 1002.7 |
| 20260504191955 | 28 | 158 | 6.4 | 20.9 | 0.00 | 5.44 | 2.84 | 40 | 1002.8 |
| 20260504191919 | 28 | 324 | 4.8 | 16.1 | 0.00 | 5.44 | 2.84 | 41 | 1002.7 |
| 20260504191814 | 28 | 19 | 6.4 | 16.1 | 0.00 | 5.44 | 2.84 | 41 | 1002.8 |
| 20260504191718 | 28 | 202 | 4.8 | 16.1 | 0.00 | 5.44 | 2.84 | 41 | 1002.7 |
| 20260504191556 | 28 | 193 | 4.8 | 16.1 | 0.00 | 5.44 | 2.84 | 41 | 1002.7 |
| 20260504191538 | 28 | 351 | 6.4 | 16.1 | 0.00 | 5.44 | 2.84 | 40 | 1002.7 |
| 20260504191511 | 28 | 162 | 8.0 | 16.1 | 0.00 | 5.44 | 2.84 | 40 | 1002.8 |
| 20260504191414 | 28 | 285 | 4.8 | 16.1 | 0.00 | 5.44 | 2.84 | 40 | 1002.8 |
| 20260504191309 | 28 | 219 | 0.0 | 14.5 | 0.00 | 5.44 | 2.84 | 42 | 1002.8 |
| 20260504191204 | 28 | 275 | 1.6 | 14.5 | 0.00 | 5.44 | 2.84 | 41 | 1002.8 |
| 20260504191108 | 28 | 252 | 4.8 | 14.5 | 0.00 | 5.44 | 2.84 | 41 | 1002.8 |
| 20260504191007 | 28 | 292 | 4.8 | 14.5 | 0.00 | 5.44 | 2.84 | 41 | 1002.7 |
| 20260504190931 | 28 | 323 | 4.8 | 14.5 | 0.00 | 5.44 | 2.84 | 41 | 1002.8 |
| 20260504190805 | 28 | 186 | 6.4 | 14.5 | 0.00 | 5.44 | 2.84 | 40 | 1002.9 |
| 20260504190659 | 28 | 143 | 6.4 | 14.5 | 0.00 | 5.44 | 2.84 | 40 | 1002.9 |
| 20260504190603 | 28 | 122 | 3.2 | 14.5 | 0.00 | 5.44 | 2.84 | 41 | 1002.9 |
| 20260504190458 | 28 | 217 | 0.0 | 14.5 | 0.00 | 5.44 | 2.84 | 41 | 1002.9 |
| 20260504190422 | 28 | 295 | 0.0 | 14.5 | 0.00 | 5.44 | 2.84 | 41 | 1002.9 |
| 20260504190301 | 28 | 295 | 0.0 | 14.5 | 0.00 | 5.44 | 2.84 | 42 | 1002.9 |
| 20260504190156 | 28 | 306 | 3.2 | 14.5 | 0.00 | 5.44 | 2.84 | 40 | 1002.9 |
| 20260504190131 | 28 | 231 | 3.2 | 14.5 | 0.00 | 5.44 | 2.84 | 40 | 1002.9 |
| 20260504190044 | 27 | 145 | 4.8 | 14.5 | 0.00 | 5.44 | 2.84 | 41 | 1002.9 |
| 20260504190011 | 28 | 269 | 4.8 | 14.5 | 0.00 | 5.44 | 2.84 | 41 | 1002.9 |
| 20260504185914 | 28 | 158 | 3.2 | 12.9 | 0.00 | 5.44 | 2.84 | 42 | 1002.9 |
| 20260504185808 | 28 | 294 | 4.8 | 12.9 | 0.00 | 5.44 | 2.84 | 42 | 1002.9 |
| 20260504185703 | 28 | 199 | 4.8 | 12.9 | 0.00 | 5.44 | 2.84 | 41 | 1002.9 |
| 20260504185611 | 28 | 218 | 6.4 | 12.9 | 0.00 | 5.44 | 2.84 | 41 | 1003.0 |
| 20260504185506 | 28 | 223 | 4.8 | 12.9 | 0.00 | 5.44 | 2.84 | 41 | 1002.9 |
| 20260504185400 | 28 | 231 | 3.2 | 11.3 | 0.00 | 5.44 | 2.84 | 43 | 1003.0 |
| 20260504185255 | 27 | 136 | 4.8 | 12.9 | 0.00 | 5.44 | 2.84 | 41 | 1002.9 |
| 20260504185159 | 27 | 208 | 6.4 | 12.9 | 0.00 | 5.44 | 2.84 | 41 | 1002.8 |
| 20260504185055 | 27 | 226 | 4.8 | 12.9 | 0.00 | 5.44 | 2.84 | 41 | 1003.0 |
| 20260504185019 | 27 | 163 | 4.8 | 12.9 | 0.00 | 5.44 | 2.84 | 41 | 1003.0 |
| 20260504184858 | 27 | 273 | 8.0 | 12.9 | 0.00 | 5.44 | 2.84 | 41 | 1002.9 |
| 20260504184823 | 27 | 238 | 6.4 | 12.9 | 0.00 | 5.44 | 2.84 | 41 | 1003.0 |
| 20260504184716 | 27 | 174 | 4.8 | 12.9 | 0.00 | 5.44 | 2.84 | 42 | 1003.0 |
| 20260504184619 | 27 | 227 | 4.8 | 12.9 | 0.00 | 5.44 | 2.84 | 42 | 1002.9 |
| 20260504184616 | 27 | 229 | 3.2 | 12.9 | 0.00 | 5.44 | 2.84 | 42 | 1002.9 |
| 20260504184513 | 27 | 281 | 4.8 | 12.9 | 0.00 | 5.44 | 2.84 | 42 | 1003.0 |
| 20260504184408 | 27 | 247 | 4.8 | 12.9 | 0.00 | 5.44 | 2.84 | 41 | 1002.9 |
| 20260504184303 | 27 | 148 | 4.8 | 17.7 | 0.00 | 5.44 | 2.84 | 40 | 1002.9 |
| 20260504184211 | 27 | 250 | 4.8 | 17.7 | 0.00 | 5.44 | 2.84 | 40 | 1003.0 |
| 20260504184106 | 27 | 197 | 3.2 | 17.7 | 0.00 | 5.44 | 2.84 | 41 | 1003.0 |
| 20260504184011 | 27 | 54 | 1.6 | 17.7 | 0.00 | 5.44 | 2.84 | 42 | 1003.0 |
| 20260504183925 | 27 | 139 | 3.2 | 17.7 | 0.00 | 5.44 | 2.84 | 42 | 1003.0 |
| 20260504183758 | 27 | 226 | 4.8 | 17.7 | 0.00 | 5.44 | 2.84 | 42 | 1003.0 |
| 20260504183722 | 27 | 140 | 6.4 | 17.7 | 0.00 | 5.44 | 2.84 | 42 | 1003.0 |
| 20260504183556 | 27 | 141 | 6.4 | 17.7 | 0.00 | 5.44 | 2.84 | 41 | 1003.0 |
| 20260504183500 | 27 | 185 | 6.4 | 17.7 | 0.00 | 5.44 | 2.84 | 41 | 1003.1 |
| 20260504183359 | 27 | 250 | 6.4 | 17.7 | 0.00 | 5.44 | 2.84 | 42 | 1003.0 |
| 20260504183254 | 27 | 301 | 4.8 | 17.7 | 0.00 | 5.44 | 2.84 | 42 | 1003.0 |
| 20260504183157 | 27 | 229 | 4.8 | 17.7 | 0.00 | 5.44 | 2.84 | 44 | 1003.1 |
| 20260504183125 | 26 | 255 | 4.8 | 17.7 | 0.00 | 5.44 | 2.84 | 42 | 1003.0 |
| 20260504183113 | 27 | 274 | 6.4 | 17.7 | 0.00 | 5.44 | 2.84 | 42 | 1003.1 |
| 20260504183018 | 27 | 212 | 6.4 | 17.7 | 0.00 | 5.44 | 2.84 | 42 | 1003.1 |
| 20260504182931 | 26 | 236 | 8.0 | 17.7 | 0.00 | 5.44 | 2.84 | 42 | 1003.2 |
| 20260504182814 | 26 | 246 | 8.0 | 17.7 | 0.00 | 5.44 | 2.84 | 42 | 1003.1 |
| 20260504182713 | 26 | 194 | 8.0 | 17.7 | 0.00 | 5.44 | 2.84 | 42 | 1003.1 |
| 20260504182608 | 27 | 195 | 9.7 | 17.7 | 0.00 | 5.44 | 2.84 | 41 | 1003.1 |
| 20260504182511 | 27 | 223 | 8.0 | 17.7 | 0.00 | 5.44 | 2.84 | 41 | 1003.1 |
| 20260504182426 | 27 | 242 | 4.8 | 17.7 | 0.00 | 5.44 | 2.84 | 42 | 1003.2 |
| 20260504182309 | 27 | 239 | 8.0 | 17.7 | 0.00 | 5.44 | 2.84 | 41 | 1003.2 |
| 20260504182204 | 27 | 304 | 8.0 | 17.7 | 0.00 | 5.44 | 2.84 | 42 | 1003.2 |
| 20260504182059 | 27 | 230 | 6.4 | 17.7 | 0.00 | 5.44 | 2.84 | 41 | 1003.1 |
| 20260504182007 | 27 | 248 | 4.8 | 17.7 | 0.00 | 5.44 | 2.84 | 41 | 1003.2 |
| 20260504181901 | 27 | 121 | 6.4 | 17.7 | 0.00 | 5.44 | 2.84 | 40 | 1003.2 |
| 20260504181804 | 27 | 208 | 9.7 | 17.7 | 0.00 | 5.44 | 2.84 | 41 | 1003.2 |
| 20260504181700 | 27 | 263 | 6.4 | 17.7 | 0.00 | 5.44 | 2.84 | 42 | 1003.2 |
| 20260504181612 | 26 | 259 | 4.8 | 16.1 | 0.00 | 5.44 | 2.84 | 43 | 1003.1 |
| 20260504181555 | 27 | 243 | 6.4 | 16.1 | 0.00 | 5.44 | 2.84 | 42 | 1003.1 |
| 20260504181459 | 27 | 336 | 4.8 | 16.1 | 0.00 | 5.44 | 2.84 | 42 | 1003.1 |
| 20260504181354 | 27 | 304 | 4.8 | 16.1 | 0.00 | 5.44 | 2.84 | 41 | 1003.1 |
| 20260504181318 | 27 | 265 | 3.2 | 16.1 | 0.00 | 5.44 | 2.84 | 41 | 1003.2 |
| 20260504181156 | 27 | 333 | 1.6 | 16.1 | 0.00 | 5.44 | 2.84 | 43 | 1003.2 |
| 20260504181111 | 27 | 229 | 4.8 | 16.1 | 0.00 | 5.44 | 2.84 | 43 | 1003.2 |
| 20260504181015 | 26 | 167 | 8.0 | 16.1 | 0.00 | 5.44 | 2.84 | 42 | 1003.3 |
| 20260504180908 | 26 | 217 | 6.4 | 12.9 | 0.00 | 5.44 | 2.84 | 42 | 1003.3 |
| 20260504180811 | 26 | 298 | 4.8 | 12.9 | 0.00 | 5.44 | 2.84 | 42 | 1003.3 |
| 20260504180725 | 26 | 263 | 4.8 | 12.9 | 0.00 | 5.44 | 2.84 | 41 | 1003.3 |
| 20260504180609 | 26 | 255 | 4.8 | 12.9 | 0.00 | 5.44 | 2.84 | 42 | 1003.3 |
| 20260504180508 | 26 | 301 | 6.4 | 12.9 | 0.00 | 5.44 | 2.84 | 42 | 1003.4 |
| 20260504180402 | 26 | 253 | 6.4 | 12.9 | 0.00 | 5.44 | 2.84 | 41 | 1003.4 |
| 20260504180306 | 26 | 163 | 4.8 | 12.9 | 0.00 | 5.44 | 2.84 | 43 | 1003.4 |
| 20260504180201 | 26 | 261 | 4.8 | 12.9 | 0.00 | 5.44 | 2.84 | 43 | 1003.5 |
| 20260504180137 | 26 | 207 | 6.4 | 12.9 | 0.00 | 5.44 | 2.84 | 43 | 1003.5 |
| 20260504180045 | 26 | 191 | 6.4 | 12.9 | 0.00 | 5.44 | 2.84 | 42 | 1003.3 |
| 20260504175956 | 26 | 245 | 8.0 | 12.9 | 0.00 | 5.44 | 2.84 | 42 | 1003.5 |
| 20260504175908 | 26 | 249 | 6.4 | 12.9 | 0.00 | 5.44 | 2.84 | 42 | 1003.4 |
| 20260504175816 | 26 | 268 | 6.4 | 12.9 | 0.00 | 5.44 | 2.84 | 42 | 1003.3 |
| 20260504175711 | 26 | 179 | 4.8 | 12.9 | 0.00 | 5.44 | 2.84 | 42 | 1003.3 |
| 20260504175635 | 26 | 221 | 4.8 | 12.9 | 0.00 | 5.44 | 2.84 | 43 | 1003.4 |
| 20260504175509 | 26 | 241 | 3.2 | 14.5 | 0.00 | 5.44 | 2.84 | 42 | 1003.4 |
| 20260504175404 | 26 | 118 | 4.8 | 16.1 | 0.00 | 5.44 | 2.84 | 43 | 1003.4 |
| 20260504175328 | 26 | 288 | 4.8 | 16.1 | 0.00 | 5.44 | 2.84 | 43 | 1003.5 |
| 20260504175222 | 26 | 298 | 4.8 | 19.3 | 0.00 | 5.44 | 2.84 | 43 | 1003.4 |
| 20260504175056 | 26 | 203 | 3.2 | 19.3 | 0.00 | 5.44 | 2.84 | 43 | 1003.4 |
| 20260504174955 | 26 | 218 | 3.2 | 19.3 | 0.00 | 5.44 | 2.84 | 42 | 1003.4 |
| 20260504174920 | 26 | 318 | 4.8 | 19.3 | 0.00 | 5.44 | 2.84 | 43 | 1003.4 |
| 20260504174814 | 26 | 288 | 6.4 | 19.3 | 0.00 | 5.44 | 2.84 | 43 | 1003.5 |
| 20260504174717 | 26 | 186 | 8.0 | 19.3 | 0.00 | 5.44 | 2.84 | 43 | 1003.5 |
| 20260504174612 | 26 | 296 | 9.7 | 19.3 | 0.00 | 5.44 | 2.84 | 43 | 1003.6 |
| 20260504174522 | 26 | 251 | 9.7 | 19.3 | 0.00 | 5.44 | 2.84 | 43 | 1003.5 |
| 20260504174507 | 26 | 284 | 9.7 | 19.3 | 0.00 | 5.44 | 2.84 | 43 | 1003.5 |
| 20260504174411 | 26 | 266 | 4.8 | 19.3 | 0.00 | 5.44 | 2.84 | 44 | 1003.5 |
| 20260504174311 | 26 | 266 | 0.0 | 16.1 | 0.00 | 5.44 | 2.84 | 44 | 1003.4 |
| 20260504174205 | 26 | 62 | 3.2 | 16.1 | 0.00 | 5.44 | 2.84 | 44 | 1003.5 |
| 20260504174109 | 26 | 200 | 8.0 | 16.1 | 0.00 | 5.44 | 2.84 | 44 | 1003.5 |
| 20260504174004 | 26 | 250 | 9.7 | 16.1 | 0.00 | 5.44 | 2.84 | 43 | 1003.5 |
| 20260504173859 | 26 | 273 | 8.0 | 16.1 | 0.00 | 5.44 | 2.84 | 44 | 1003.6 |
| 20260504173803 | 26 | 300 | 6.4 | 16.1 | 0.00 | 5.44 | 2.84 | 44 | 1003.6 |
| 20260504173658 | 26 | 161 | 4.8 | 16.1 | 0.00 | 5.44 | 2.84 | 43 | 1003.5 |
| 20260504173626 | 26 | 198 | 6.4 | 16.1 | 0.00 | 5.44 | 2.84 | 43 | 1003.6 |
| 20260504173500 | 26 | 245 | 8.0 | 16.1 | 0.00 | 5.44 | 2.84 | 43 | 1003.6 |
| 20260504173355 | 26 | 211 | 6.4 | 17.7 | 0.00 | 5.44 | 2.84 | 43 | 1003.6 |
| 20260504173258 | 26 | 172 | 3.2 | 17.7 | 0.00 | 5.44 | 2.84 | 43 | 1003.6 |
| 20260504173153 | 26 | 288 | 3.2 | 17.7 | 0.00 | 5.44 | 2.84 | 43 | 1003.6 |
| 20260504173117 | 26 | 143 | 1.6 | 17.7 | 0.00 | 5.44 | 2.84 | 43 | 1003.6 |
| 20260504173055 | 26 | 328 | 0.0 | 17.7 | 0.00 | 5.44 | 2.84 | 43 | 1003.6 |
| 20260504172954 | 26 | 247 | 1.6 | 17.7 | 0.00 | 5.44 | 2.84 | 43 | 1003.6 |
| 20260504172912 | 26 | 231 | 4.8 | 17.7 | 0.00 | 5.44 | 2.84 | 43 | 1003.6 |
| 20260504172816 | 26 | 158 | 6.4 | 17.7 | 0.00 | 5.44 | 2.84 | 43 | 1003.6 |
| 20260504172711 | 26 | 278 | 6.4 | 17.7 | 0.00 | 5.44 | 2.84 | 43 | 1003.6 |
| 20260504172635 | 26 | 274 | 8.0 | 17.7 | 0.00 | 5.44 | 2.84 | 43 | 1003.6 |
| 20260504172509 | 26 | 244 | 8.0 | 17.7 | 0.00 | 5.44 | 2.84 | 42 | 1003.7 |
| 20260504172433 | 26 | 307 | 3.2 | 16.1 | 0.00 | 5.44 | 2.84 | 43 | 1003.6 |
| 20260504172307 | 26 | 94 | 1.6 | 16.1 | 0.00 | 5.44 | 2.84 | 44 | 1003.6 |
| 20260504172209 | 26 | 256 | 3.2 | 16.1 | 0.00 | 5.44 | 2.84 | 44 | 1003.5 |
| 20260504172108 | 26 | 273 | 6.4 | 16.1 | 0.00 | 5.44 | 2.84 | 43 | 1003.6 |
| 20260504172003 | 26 | 260 | 8.0 | 16.1 | 0.00 | 5.44 | 2.84 | 43 | 1003.5 |
| 20260504171907 | 26 | 315 | 3.2 | 16.1 | 0.00 | 5.44 | 2.84 | 44 | 1003.5 |
| 20260504171802 | 26 | 266 | 1.6 | 16.1 | 0.00 | 5.44 | 2.84 | 44 | 1003.5 |
| 20260504171657 | 26 | 130 | 6.4 | 19.3 | 0.00 | 5.44 | 2.84 | 45 | 1003.5 |
| 20260504171621 | 25 | 199 | 6.4 | 19.3 | 0.00 | 5.44 | 2.84 | 44 | 1003.5 |
| 20260504171517 | 25 | 175 | 4.8 | 19.3 | 0.00 | 5.44 | 2.84 | 44 | 1003.6 |
| 20260504171455 | 25 | 195 | 6.4 | 19.3 | 0.00 | 5.44 | 2.84 | 44 | 1003.6 |
| 20260504171403 | 25 | 115 | 4.8 | 19.3 | 0.00 | 5.44 | 2.84 | 45 | 1003.6 |
| 20260504171258 | 25 | 308 | 4.8 | 19.3 | 0.00 | 5.44 | 2.84 | 45 | 1003.6 |
| 20260504171221 | 25 | 206 | 6.4 | 19.3 | 0.00 | 5.44 | 2.84 | 44 | 1003.7 |
| 20260504171056 | 25 | 271 | 6.4 | 19.3 | 0.00 | 5.44 | 2.84 | 44 | 1003.6 |
| 20260504171011 | 25 | 253 | 6.4 | 19.3 | 0.00 | 5.44 | 2.84 | 45 | 1003.7 |
| 20260504170915 | 25 | 176 | 8.0 | 19.3 | 0.00 | 5.44 | 2.84 | 43 | 1003.6 |
| 20260504170810 | 25 | 304 | 8.0 | 19.3 | 0.00 | 5.44 | 2.84 | 45 | 1003.6 |
| 20260504170734 | 25 | 293 | 6.4 | 17.7 | 0.00 | 5.44 | 2.84 | 44 | 1003.6 |
| 20260504170612 | 25 | 223 | 6.4 | 17.7 | 0.00 | 5.44 | 2.84 | 46 | 1003.6 |
| 20260504170514 | 25 | 297 | 8.0 | 17.7 | 0.00 | 5.44 | 2.84 | 45 | 1003.6 |
| 20260504170409 | 25 | 303 | 8.0 | 16.1 | 0.00 | 5.44 | 2.84 | 46 | 1003.6 |
| 20260504170304 | 25 | 287 | 4.8 | 16.1 | 0.00 | 5.44 | 2.84 | 46 | 1003.5 |
| 20260504170208 | 25 | 130 | 3.2 | 12.9 | 0.00 | 5.44 | 2.84 | 47 | 1003.5 |
| 20260504170147 | 25 | 269 | 1.6 | 12.9 | 0.00 | 5.44 | 2.84 | 46 | 1003.5 |
| 20260504170113 | 25 | 251 | 3.2 | 19.3 | 0.00 | 5.44 | 2.84 | 46 | 1003.6 |
| 20260504160421 | 23 | 155 | 3.2 | 22.5 | 0.00 | 5.44 | 2.84 | 49 | 1003.8 |
| 20260504160254 | 23 | 281 | 6.4 | 22.5 | 0.00 | 5.44 | 2.84 | 48 | 1003.8 |
| 20260504160209 | 23 | 256 | 6.4 | 22.5 | 0.00 | 5.44 | 2.84 | 48 | 1003.9 |
| 20260504160123 | 23 | 301 | 6.4 | 22.5 | 0.00 | 5.44 | 2.84 | 48 | 1003.8 |
| 20260504151053 | 21 | 116 | 4.8 | 17.7 | 2.84 | 6.81 | 2.84 | 51 | 1004.1 |
| 20260504151008 | 22 | 285 | 6.4 | 17.7 | 2.84 | 6.81 | 2.84 | 51 | 1004.1 |
| 20260504150911 | 22 | 264 | 6.4 | 17.7 | 2.84 | 6.81 | 2.84 | 52 | 1004.1 |
| 20260504150807 | 21 | 266 | 6.4 | 17.7 | 2.84 | 6.81 | 2.84 | 52 | 1004.1 |
| 20260504150702 | 21 | 344 | 4.8 | 16.1 | 2.84 | 6.81 | 2.84 | 52 | 1004.1 |
| 20260504150610 | 21 | 175 | 3.2 | 16.1 | 2.84 | 6.81 | 2.84 | 52 | 1004.2 |
| 20260504150505 | 21 | 229 | 4.8 | 16.1 | 2.84 | 6.81 | 2.84 | 52 | 1004.1 |
| 20260504150429 | 21 | 216 | 4.8 | 17.7 | 2.84 | 6.81 | 2.84 | 51 | 1004.1 |
| 20260504150302 | 21 | 241 | 3.2 | 17.7 | 2.84 | 6.81 | 2.84 | 52 | 1004.1 |
| 20260504150158 | 21 | 291 | 6.4 | 17.7 | 2.84 | 6.81 | 2.84 | 52 | 1004.0 |
| 20260504150114 | 21 | 184 | 8.0 | 17.7 | 2.84 | 6.81 | 2.84 | 52 | 1004.1 |
| 20260504141317 | 21 | 205 | 9.7 | 19.3 | 0.00 | 4.50 | 0.00 | 53 | 1004.3 |
| 20260504141153 | 21 | 225 | 4.8 | 19.3 | 0.00 | 4.50 | 0.00 | 54 | 1004.2 |
| 20260504141106 | 20 | 146 | 3.2 | 14.5 | 0.00 | 4.50 | 0.00 | 55 | 1004.3 |
| 20260504141011 | 20 | 281 | 4.8 | 14.5 | 0.00 | 4.50 | 0.00 | 54 | 1004.3 |
| 20260504140905 | 20 | 281 | 4.8 | 14.5 | 0.00 | 4.50 | 0.00 | 55 | 1004.3 |
| 20260504140800 | 20 | 109 | 1.6 | 14.5 | 0.00 | 4.50 | 0.00 | 55 | 1004.2 |
| 20260504140708 | 20 | 186 | 0.0 | 14.5 | 0.00 | 4.50 | 0.00 | 55 | 1004.2 |
| 20260504140603 | 20 | 281 | 0.0 | 14.5 | 0.00 | 4.50 | 0.00 | 54 | 1004.2 |
| 20260504140458 | 20 | 134 | 1.6 | 14.5 | 0.00 | 4.50 | 0.00 | 55 | 1004.2 |
| 20260504140353 | 20 | 252 | 3.2 | 14.5 | 0.00 | 4.50 | 0.00 | 55 | 1004.2 |
| 20260504140317 | 20 | 156 | 1.6 | 11.3 | 0.00 | 4.50 | 0.00 | 55 | 1004.3 |
| 20260504140242 | 20 | 158 | 1.6 | 11.3 | 0.00 | 4.50 | 0.00 | 56 | 1004.3 |
| 20260504140146 | 20 | 65 | 0.0 | 11.3 | 0.00 | 4.50 | 0.00 | 56 | 1004.3 |
| 20260504140125 | 20 | 249 | 1.6 | 11.3 | 0.00 | 4.50 | 0.00 | 56 | 1004.3 |
| 20260504130753 | 18 | 296 | 0.0 | 16.1 | 0.00 | 4.50 | 0.00 | 58 | 1004.1 |
| 20260504130702 | 18 | 224 | 1.6 | 16.1 | 0.00 | 4.50 | 0.00 | 58 | 1004.1 |
| 20260504130556 | 18 | 226 | 1.6 | 16.1 | 0.00 | 4.50 | 0.00 | 58 | 1004.0 |
| 20260504130500 | 18 | 304 | 1.6 | 11.3 | 0.00 | 4.50 | 0.00 | 58 | 1004.0 |
| 20260504130354 | 18 | 262 | 3.2 | 11.3 | 0.00 | 4.50 | 0.00 | 58 | 1004.0 |
| 20260504130307 | 18 | 66 | 3.2 | 11.3 | 0.00 | 4.50 | 0.00 | 58 | 1004.1 |
| 20260504130211 | 18 | 291 | 3.2 | 9.7 | 0.00 | 4.50 | 0.00 | 59 | 1004.1 |
| 20260504130138 | 18 | 233 | 1.6 | 9.7 | 0.00 | 4.50 | 0.00 | 59 | 1004.1 |
| 20260504130117 | 18 | 182 | 1.6 | 9.7 | 0.00 | 4.50 | 0.00 | 59 | 1004.1 |
| 20260504120253 | 15 | 292 | 0.0 | 0.0 | 0.00 | 4.50 | 0.00 | 66 | 1004.1 |
| 20260504120217 | 15 | 292 | 0.0 | 0.0 | 0.00 | 4.50 | 0.00 | 66 | 1004.1 |
| 20260504120153 | 15 | 292 | 0.0 | 0.0 | 0.00 | 4.50 | 0.00 | 66 | 1004.1 |
| 20260504120123 | 15 | 221 | 0.0 | 0.0 | 0.00 | 4.50 | 0.00 | 66 | 1004.1 |
| 20260504110714 | 17 | 146 | 0.0 | 0.0 | 0.00 | 4.50 | 0.00 | 58 | 1004.6 |
| 20260504110630 | 17 | 146 | 0.0 | 0.0 | 0.00 | 4.50 | 0.00 | 59 | 1004.6 |
| 20260504110512 | 17 | 185 | 0.0 | 0.0 | 0.00 | 4.50 | 0.00 | 59 | 1004.6 |
| 20260504110411 | 17 | 177 | 0.0 | 0.0 | 0.00 | 4.50 | 0.00 | 58 | 1004.7 |
| 20260504110306 | 17 | 282 | 0.0 | 0.0 | 0.00 | 4.50 | 0.00 | 57 | 1004.7 |
| 20260504110232 | 17 | 282 | 0.0 | 0.0 | 0.00 | 4.50 | 0.00 | 57 | 1004.8 |
| 20260504110129 | 17 | 284 | 0.0 | 0.0 | 0.00 | 4.50 | 0.00 | 57 | 1004.8 |
| 20260504110117 | 17 | 284 | 0.0 | 0.0 | 0.00 | 4.50 | 0.00 | 57 | 1004.7 |
| 20260504100607 | 17 | 266 | 0.0 | 8.0 | 0.00 | 4.50 | 0.00 | 55 | 1004.5 |
| 20260504100510 | 17 | 261 | 0.0 | 8.0 | 0.00 | 4.50 | 0.00 | 55 | 1004.6 |
| 20260504100409 | 17 | 176 | 0.0 | 8.0 | 0.00 | 4.50 | 0.00 | 55 | 1004.6 |
| 20260504100304 | 17 | 254 | 0.0 | 8.0 | 0.00 | 4.50 | 0.00 | 55 | 1004.6 |
| 20260504100208 | 17 | 143 | 0.0 | 8.0 | 0.00 | 4.50 | 0.00 | 55 | 1004.6 |
| 20260504100145 | 17 | 214 | 0.0 | 8.0 | 0.00 | 4.50 | 0.00 | 55 | 1004.6 |
| 20260504100113 | 18 | 279 | 1.6 | 8.0 | 0.00 | 4.50 | 0.00 | 55 | 1004.6 |
| 20260504090130 | 18 | 187 | 1.6 | 9.7 | 0.00 | 4.50 | 0.00 | 54 | 1005.0 |
| 20260504081904 | 17 | 65 | 1.6 | 6.4 | 0.00 | 4.50 | 0.00 | 57 | 1005.3 |
| 20260504081808 | 17 | 143 | 0.0 | 0.0 | 0.00 | 4.50 | 0.00 | 57 | 1005.4 |
| 20260504081703 | 17 | 285 | 0.0 | 3.2 | 0.00 | 4.50 | 0.00 | 58 | 1005.4 |
| 20260504081619 | 17 | 127 | 0.0 | 3.2 | 0.00 | 4.50 | 0.00 | 58 | 1005.4 |
| 20260504081558 | 17 | 199 | 0.0 | 3.2 | 0.00 | 4.50 | 0.00 | 58 | 1005.4 |
| 20260504081502 | 17 | 222 | 0.0 | 3.2 | 0.00 | 4.50 | 0.00 | 58 | 1005.3 |
| 20260504081421 | 17 | 155 | 0.0 | 3.2 | 0.00 | 4.50 | 0.00 | 58 | 1005.4 |
| 20260504081304 | 17 | 18 | 0.0 | 3.2 | 0.00 | 4.50 | 0.00 | 58 | 1005.4 |
| 20260504081159 | 17 | 135 | 0.0 | 3.2 | 0.00 | 4.50 | 0.00 | 58 | 1005.4 |
| 20260504081054 | 17 | 214 | 0.0 | 6.4 | 0.00 | 4.50 | 0.00 | 58 | 1005.4 |
| 20260504080958 | 17 | 215 | 0.0 | 11.3 | 0.00 | 4.50 | 0.00 | 58 | 1005.4 |
| 20260504080913 | 17 | 150 | 0.0 | 11.3 | 0.00 | 4.50 | 0.00 | 58 | 1005.5 |
| 20260504080756 | 17 | 330 | 0.0 | 11.3 | 0.00 | 4.50 | 0.00 | 58 | 1005.5 |
| 20260504080655 | 17 | 255 | 0.0 | 11.3 | 0.00 | 4.50 | 0.00 | 58 | 1005.5 |
| 20260504080618 | 17 | 216 | 0.0 | 11.3 | 0.00 | 4.50 | 0.00 | 58 | 1005.5 |
| 20260504080513 | 17 | 164 | 0.0 | 11.3 | 0.00 | 4.50 | 0.00 | 58 | 1005.5 |
| 20260504080437 | 17 | 167 | 0.0 | 11.3 | 0.00 | 4.50 | 0.00 | 59 | 1005.6 |
| 20260504080310 | 17 | 255 | 1.6 | 11.3 | 0.00 | 4.50 | 0.00 | 59 | 1005.5 |
| 20260504080234 | 17 | 270 | 1.6 | 11.3 | 0.00 | 4.50 | 0.00 | 58 | 1005.5 |
| 20260504080119 | 17 | 177 | 0.0 | 11.3 | 0.00 | 4.50 | 0.00 | 59 | 1005.5 |